| time (UTC) | temp C | wind direction | speed KPH | gust KPH | rain 1hr cm | rain 24hr cm | rain mn cm | humidity % | barometer mb |
| 20260507192909 | 17 | 91 | 4.8 | 19.3 | 0.00 | 0.30 | 0.00 | 33 | 1006.9 |
| 20260507192757 | 17 | 99 | 4.8 | 19.3 | 0.00 | 0.30 | 0.00 | 33 | 1007.0 |
| 20260507192700 | 17 | 82 | 4.8 | 19.3 | 0.00 | 0.30 | 0.00 | 33 | 1007.0 |
| 20260507192605 | 17 | 77 | 6.4 | 19.3 | 0.00 | 0.30 | 0.00 | 34 | 1007.1 |
| 20260507192507 | 17 | 74 | 8.0 | 19.3 | 0.00 | 0.30 | 0.00 | 33 | 1007.0 |
| 20260507192410 | 17 | 145 | 8.0 | 19.3 | 0.00 | 0.30 | 0.00 | 33 | 1007.0 |
| 20260507192314 | 17 | 79 | 8.0 | 19.3 | 0.00 | 0.30 | 0.00 | 34 | 1007.0 |
| 20260507192200 | 17 | 204 | 6.4 | 17.7 | 0.00 | 0.30 | 0.00 | 34 | 1007.0 |
| 20260507192105 | 17 | 311 | 6.4 | 17.7 | 0.00 | 0.30 | 0.00 | 34 | 1007.0 |
| 20260507192007 | 17 | 124 | 4.8 | 17.7 | 0.00 | 0.30 | 0.00 | 35 | 1007.0 |
| 20260507191910 | 17 | 74 | 4.8 | 17.7 | 0.00 | 0.30 | 0.00 | 34 | 1007.0 |
| 20260507191814 | 17 | 100 | 4.8 | 17.7 | 0.00 | 0.30 | 0.00 | 33 | 1007.0 |
| 20260507191657 | 17 | 160 | 4.8 | 17.7 | 0.00 | 0.30 | 0.00 | 33 | 1007.0 |
| 20260507191625 | 17 | 105 | 4.8 | 16.1 | 0.00 | 0.30 | 0.00 | 34 | 1006.9 |
| 20260507191527 | 17 | 89 | 4.8 | 16.1 | 0.00 | 0.30 | 0.00 | 34 | 1007.0 |
| 20260507191409 | 17 | 79 | 4.8 | 16.1 | 0.00 | 0.30 | 0.00 | 34 | 1007.0 |
| 20260507191313 | 17 | 147 | 3.2 | 16.1 | 0.00 | 0.30 | 0.00 | 34 | 1007.0 |
| 20260507191156 | 17 | 81 | 1.6 | 14.5 | 0.00 | 0.30 | 0.00 | 34 | 1007.1 |
| 20260507191100 | 17 | 83 | 4.8 | 16.1 | 0.00 | 0.30 | 0.00 | 32 | 1007.0 |
| 20260507191002 | 17 | 96 | 3.2 | 16.1 | 0.00 | 0.30 | 0.00 | 34 | 1007.0 |
| 20260507190910 | 17 | 132 | 1.6 | 16.1 | 0.00 | 0.30 | 0.00 | 35 | 1007.0 |
| 20260507190813 | 17 | 106 | 4.8 | 16.1 | 0.00 | 0.30 | 0.00 | 34 | 1007.0 |
| 20260507190657 | 17 | 115 | 8.0 | 16.1 | 0.00 | 0.30 | 0.00 | 33 | 1007.1 |
| 20260507190600 | 17 | 75 | 6.4 | 16.1 | 0.00 | 0.30 | 0.00 | 34 | 1007.0 |
| 20260507190503 | 17 | 89 | 6.4 | 16.1 | 0.00 | 0.30 | 0.00 | 33 | 1007.0 |
| 20260507190426 | 17 | 96 | 6.4 | 16.1 | 0.00 | 0.30 | 0.00 | 33 | 1007.0 |
| 20260507190313 | 17 | 83 | 6.4 | 19.3 | 0.00 | 0.30 | 0.00 | 35 | 1007.1 |
| 20260507190156 | 17 | 122 | 6.4 | 16.1 | 0.00 | 0.30 | 0.00 | 33 | 1007.0 |
| 20260507190132 | 17 | 72 | 6.4 | 16.1 | 0.00 | 0.30 | 0.00 | 33 | 1007.0 |
| 20260507190017 | 17 | 201 | 6.4 | 16.1 | 0.00 | 0.30 | 0.00 | 32 | 1007.1 |
| 20260507185859 | 17 | 80 | 3.2 | 16.1 | 0.00 | 0.30 | 0.00 | 33 | 1007.1 |
| 20260507185803 | 17 | 89 | 3.2 | 16.1 | 0.00 | 0.30 | 0.00 | 32 | 1007.1 |
| 20260507185706 | 17 | 125 | 1.6 | 16.1 | 0.00 | 0.30 | 0.00 | 34 | 1007.1 |
| 20260507185634 | 17 | 22 | 4.8 | 16.1 | 0.00 | 0.30 | 0.00 | 33 | 1007.2 |
| 20260507185455 | 17 | 132 | 6.4 | 16.1 | 0.00 | 0.30 | 0.00 | 34 | 1007.2 |
| 20260507185359 | 17 | 113 | 4.8 | 16.1 | 0.00 | 0.30 | 0.00 | 35 | 1007.2 |
| 20260507185323 | 17 | 145 | 4.8 | 20.9 | 0.00 | 0.30 | 0.00 | 35 | 1007.2 |
| 20260507185206 | 17 | 99 | 1.6 | 20.9 | 0.00 | 0.30 | 0.00 | 36 | 1007.2 |
| 20260507185109 | 17 | 91 | 1.6 | 20.9 | 0.00 | 0.30 | 0.00 | 35 | 1007.2 |
| 20260507184956 | 17 | 123 | 3.2 | 20.9 | 0.00 | 0.30 | 0.00 | 36 | 1007.2 |
| 20260507184859 | 17 | 105 | 4.8 | 20.9 | 0.00 | 0.30 | 0.00 | 35 | 1007.2 |
| 20260507184803 | 17 | 155 | 4.8 | 20.9 | 0.00 | 0.30 | 0.00 | 35 | 1007.3 |
| 20260507184706 | 17 | 148 | 4.8 | 20.9 | 0.00 | 0.30 | 0.00 | 37 | 1007.3 |
| 20260507184611 | 17 | 123 | 4.8 | 20.9 | 0.00 | 0.30 | 0.00 | 35 | 1007.3 |
| 20260507184513 | 17 | 113 | 6.4 | 20.9 | 0.00 | 0.30 | 0.00 | 35 | 1007.3 |
| 20260507184401 | 17 | 99 | 4.8 | 14.5 | 0.00 | 0.30 | 0.00 | 35 | 1007.3 |
| 20260507184304 | 17 | 84 | 3.2 | 16.1 | 0.00 | 0.30 | 0.00 | 36 | 1007.3 |
| 20260507184208 | 17 | 134 | 1.6 | 16.1 | 0.00 | 0.30 | 0.00 | 36 | 1007.4 |
| 20260507184111 | 17 | 124 | 0.0 | 16.1 | 0.00 | 0.30 | 0.00 | 37 | 1007.3 |
| 20260507184013 | 17 | 49 | 0.0 | 16.1 | 0.00 | 0.30 | 0.00 | 37 | 1007.3 |
| 20260507183916 | 17 | 203 | 0.0 | 16.1 | 0.00 | 0.30 | 0.00 | 36 | 1007.3 |
| 20260507183759 | 17 | 37 | 1.6 | 16.1 | 0.00 | 0.30 | 0.00 | 38 | 1007.4 |
| 20260507183706 | 16 | 75 | 3.2 | 16.1 | 0.00 | 0.30 | 0.00 | 36 | 1007.4 |
| 20260507183611 | 16 | 141 | 6.4 | 16.1 | 0.00 | 0.30 | 0.00 | 35 | 1007.4 |
| 20260507183513 | 17 | 129 | 6.4 | 16.1 | 0.00 | 0.30 | 0.00 | 35 | 1007.4 |
| 20260507183356 | 17 | 186 | 4.8 | 12.9 | 0.00 | 0.30 | 0.00 | 36 | 1007.4 |
| 20260507183320 | 17 | 157 | 3.2 | 12.9 | 0.00 | 0.30 | 0.00 | 37 | 1007.4 |
| 20260507183223 | 17 | 64 | 1.6 | 12.9 | 0.00 | 0.30 | 0.00 | 38 | 1007.4 |
| 20260507183126 | 17 | 113 | 1.6 | 12.9 | 0.00 | 0.30 | 0.00 | 37 | 1007.4 |
| 20260507183027 | 17 | 214 | 1.6 | 12.9 | 0.00 | 0.30 | 0.00 | 37 | 1007.4 |
| 20260507182914 | 17 | 77 | 3.2 | 12.9 | 0.00 | 0.30 | 0.00 | 36 | 1007.4 |
| 20260507182757 | 17 | 152 | 4.8 | 12.9 | 0.00 | 0.30 | 0.00 | 37 | 1007.5 |
| 20260507182701 | 17 | 160 | 3.2 | 11.3 | 0.00 | 0.30 | 0.00 | 37 | 1007.6 |
| 20260507182626 | 17 | 108 | 1.6 | 11.3 | 0.00 | 0.30 | 0.00 | 38 | 1007.7 |
| 20260507182527 | 17 | 103 | 3.2 | 11.3 | 0.00 | 0.30 | 0.00 | 36 | 1007.7 |
| 20260507182410 | 17 | 136 | 4.8 | 11.3 | 0.00 | 0.30 | 0.00 | 37 | 1007.6 |
| 20260507182257 | 16 | 112 | 3.2 | 11.3 | 0.00 | 0.30 | 0.00 | 38 | 1007.5 |
| 20260507182201 | 16 | 42 | 4.8 | 11.3 | 0.00 | 0.30 | 0.00 | 37 | 1007.6 |
| 20260507182104 | 16 | 100 | 3.2 | 11.3 | 0.00 | 0.30 | 0.00 | 38 | 1007.7 |
| 20260507182007 | 16 | 108 | 1.6 | 11.3 | 0.00 | 0.30 | 0.00 | 37 | 1007.5 |
| 20260507181910 | 16 | 87 | 1.6 | 11.3 | 0.00 | 0.30 | 0.00 | 38 | 1007.5 |
| 20260507181813 | 16 | 40 | 0.0 | 11.3 | 0.00 | 0.30 | 0.00 | 37 | 1007.5 |
| 20260507181701 | 16 | 81 | 3.2 | 11.3 | 0.00 | 0.30 | 0.00 | 36 | 1007.5 |
| 20260507181606 | 17 | 143 | 4.8 | 14.5 | 0.00 | 0.30 | 0.00 | 36 | 1007.5 |
| 20260507181527 | 17 | 126 | 4.8 | 17.7 | 0.00 | 0.30 | 0.00 | 39 | 1007.5 |
| 20260507181430 | 17 | 103 | 3.2 | 17.7 | 0.00 | 0.30 | 0.00 | 38 | 1007.6 |
| 20260507181313 | 17 | 41 | 3.2 | 17.7 | 0.00 | 0.30 | 0.00 | 40 | 1007.6 |
| 20260507181156 | 16 | 146 | 3.2 | 17.7 | 0.00 | 0.30 | 0.00 | 40 | 1007.6 |
| 20260507181100 | 16 | 108 | 1.6 | 17.7 | 0.00 | 0.30 | 0.00 | 39 | 1007.6 |
| 20260507181022 | 16 | 179 | 1.6 | 17.7 | 0.00 | 0.30 | 0.00 | 41 | 1007.7 |
| 20260507180909 | 16 | 70 | 1.6 | 17.7 | 0.00 | 0.30 | 0.00 | 40 | 1007.7 |
| 20260507180812 | 16 | 117 | 8.0 | 17.7 | 0.00 | 0.30 | 0.00 | 40 | 1007.7 |
| 20260507180655 | 16 | 122 | 8.0 | 17.7 | 0.00 | 0.30 | 0.00 | 40 | 1007.8 |
| 20260507180600 | 16 | 59 | 4.8 | 17.7 | 0.00 | 0.30 | 0.00 | 42 | 1007.7 |
| 20260507180503 | 16 | 131 | 4.8 | 17.7 | 0.00 | 0.30 | 0.00 | 40 | 1007.7 |
| 20260507180405 | 16 | 170 | 1.6 | 17.7 | 0.00 | 0.30 | 0.00 | 42 | 1007.7 |
| 20260507180313 | 16 | 12 | 1.6 | 17.7 | 0.00 | 0.30 | 0.00 | 41 | 1007.7 |
| 20260507180156 | 16 | 111 | 6.4 | 17.7 | 0.00 | 0.30 | 0.00 | 41 | 1007.7 |
| 20260507180131 | 16 | 67 | 8.0 | 19.3 | 0.00 | 0.30 | 0.00 | 40 | 1007.7 |
| 20260507180015 | 16 | 160 | 9.7 | 19.3 | 0.00 | 0.30 | 0.00 | 39 | 1007.8 |
| 20260507175858 | 16 | 245 | 6.4 | 19.3 | 0.00 | 0.30 | 0.00 | 40 | 1007.8 |
| 20260507175801 | 16 | 134 | 4.8 | 19.3 | 0.00 | 0.30 | 0.00 | 39 | 1007.8 |
| 20260507175709 | 16 | 186 | 9.7 | 19.3 | 0.00 | 0.30 | 0.00 | 41 | 1007.8 |
| 20260507175612 | 16 | 108 | 9.7 | 19.3 | 0.00 | 0.30 | 0.00 | 40 | 1007.8 |
| 20260507175535 | 16 | 130 | 8.0 | 19.3 | 0.00 | 0.30 | 0.00 | 40 | 1007.9 |
| 20260507175357 | 16 | 155 | 8.0 | 19.3 | 0.00 | 0.30 | 0.00 | 40 | 1007.8 |
| 20260507175301 | 16 | 131 | 8.0 | 20.9 | 0.00 | 0.30 | 0.00 | 40 | 1007.8 |
| 20260507175204 | 16 | 136 | 6.4 | 20.9 | 0.00 | 0.30 | 0.00 | 39 | 1007.9 |
| 20260507175108 | 16 | 145 | 4.8 | 20.9 | 0.00 | 0.30 | 0.00 | 40 | 1007.9 |
| 20260507174954 | 16 | 94 | 8.0 | 20.9 | 0.00 | 0.30 | 0.00 | 39 | 1007.9 |
| 20260507174858 | 16 | 138 | 6.4 | 20.9 | 0.00 | 0.30 | 0.00 | 40 | 1007.9 |
| 20260507174801 | 16 | 111 | 4.8 | 20.9 | 0.00 | 0.30 | 0.00 | 40 | 1007.9 |
| 20260507174704 | 16 | 93 | 4.8 | 20.9 | 0.00 | 0.30 | 0.00 | 40 | 1007.8 |
| 20260507174609 | 16 | 174 | 8.0 | 20.9 | 0.00 | 0.30 | 0.00 | 39 | 1007.9 |
| 20260507174456 | 16 | 87 | 9.7 | 20.9 | 0.00 | 0.30 | 0.00 | 39 | 1007.8 |
| 20260507174358 | 16 | 113 | 4.8 | 17.7 | 0.00 | 0.30 | 0.00 | 41 | 1007.8 |
| 20260507174302 | 16 | 120 | 6.4 | 17.7 | 0.00 | 0.30 | 0.00 | 40 | 1007.8 |
| 20260507174206 | 16 | 67 | 6.4 | 17.7 | 0.00 | 0.30 | 0.00 | 39 | 1007.8 |
| 20260507174109 | 16 | 164 | 6.4 | 17.7 | 0.00 | 0.30 | 0.00 | 41 | 1007.8 |
| 20260507174011 | 16 | 131 | 8.0 | 16.1 | 0.00 | 0.30 | 0.00 | 40 | 1007.8 |
| 20260507173858 | 16 | 128 | 4.8 | 16.1 | 0.00 | 0.30 | 0.00 | 40 | 1007.7 |
| 20260507173802 | 16 | 110 | 3.2 | 14.5 | 0.00 | 0.30 | 0.00 | 41 | 1007.8 |
| 20260507173706 | 16 | 83 | 3.2 | 14.5 | 0.00 | 0.30 | 0.00 | 41 | 1007.9 |
| 20260507173609 | 16 | 89 | 4.8 | 14.5 | 0.00 | 0.30 | 0.00 | 41 | 1007.9 |
| 20260507173512 | 16 | 76 | 4.8 | 14.5 | 0.00 | 0.30 | 0.00 | 41 | 1007.9 |
| 20260507173355 | 16 | 101 | 3.2 | 17.7 | 0.00 | 0.30 | 0.00 | 43 | 1007.9 |
| 20260507173302 | 16 | 70 | 4.8 | 17.7 | 0.00 | 0.30 | 0.00 | 42 | 1007.9 |
| 20260507173206 | 16 | 96 | 4.8 | 17.7 | 0.00 | 0.30 | 0.00 | 41 | 1007.9 |
| 20260507173110 | 16 | 81 | 6.4 | 17.7 | 0.00 | 0.30 | 0.00 | 40 | 1007.9 |
| 20260507173032 | 16 | 140 | 6.4 | 17.7 | 0.00 | 0.30 | 0.00 | 39 | 1007.8 |
| 20260507172854 | 16 | 42 | 6.4 | 17.7 | 0.00 | 0.30 | 0.00 | 38 | 1007.8 |
| 20260507172758 | 16 | 51 | 4.8 | 17.7 | 0.00 | 0.30 | 0.00 | 38 | 1007.9 |
| 20260507172701 | 16 | 86 | 4.8 | 17.7 | 0.00 | 0.30 | 0.00 | 39 | 1007.9 |
| 20260507172610 | 16 | 98 | 8.0 | 17.7 | 0.00 | 0.30 | 0.00 | 40 | 1007.9 |
| 20260507172513 | 16 | 89 | 6.4 | 19.3 | 0.00 | 0.30 | 0.00 | 37 | 1007.9 |
| 20260507172355 | 16 | 190 | 3.2 | 14.5 | 0.00 | 0.30 | 0.00 | 41 | 1007.9 |
| 20260507172258 | 16 | 97 | 1.6 | 14.5 | 0.00 | 0.30 | 0.00 | 42 | 1007.8 |
| 20260507172202 | 16 | 68 | 1.6 | 14.5 | 0.00 | 0.30 | 0.00 | 42 | 1007.9 |
| 20260507172106 | 16 | 79 | 3.2 | 19.3 | 0.00 | 0.30 | 0.00 | 42 | 1007.9 |
| 20260507172012 | 16 | 136 | 3.2 | 19.3 | 0.00 | 0.30 | 0.00 | 42 | 1007.9 |
| 20260507171855 | 16 | 89 | 4.8 | 19.3 | 0.00 | 0.30 | 0.00 | 40 | 1007.9 |
| 20260507171759 | 16 | 132 | 3.2 | 19.3 | 0.00 | 0.30 | 0.00 | 39 | 1007.9 |
| 20260507171723 | 16 | 105 | 3.2 | 19.3 | 0.00 | 0.30 | 0.00 | 41 | 1008.0 |
| 20260507171606 | 16 | 71 | 1.6 | 19.3 | 0.00 | 0.30 | 0.00 | 41 | 1008.0 |
| 20260507171509 | 16 | 309 | 1.6 | 19.3 | 0.00 | 0.30 | 0.00 | 40 | 1008.0 |
| 20260507171356 | 16 | 94 | 6.4 | 19.3 | 0.00 | 0.30 | 0.00 | 40 | 1008.1 |
| 20260507171320 | 16 | 103 | 6.4 | 22.5 | 0.00 | 0.30 | 0.00 | 39 | 1008.1 |
| 20260507171202 | 16 | 103 | 4.8 | 17.7 | 0.00 | 0.30 | 0.00 | 41 | 1008.1 |
| 20260507171106 | 16 | 74 | 6.4 | 17.7 | 0.00 | 0.30 | 0.00 | 41 | 1008.1 |
| 20260507171008 | 16 | 54 | 6.4 | 17.7 | 0.00 | 0.30 | 0.00 | 41 | 1008.1 |
| 20260507170911 | 16 | 41 | 4.8 | 17.7 | 0.00 | 0.30 | 0.00 | 41 | 1008.0 |
| 20260507170758 | 16 | 60 | 3.2 | 17.7 | 0.00 | 0.30 | 0.00 | 41 | 1008.0 |
| 20260507170702 | 16 | 18 | 6.4 | 17.7 | 0.00 | 0.30 | 0.00 | 40 | 1008.0 |
| 20260507170606 | 16 | 148 | 8.0 | 16.1 | 0.00 | 0.30 | 0.00 | 41 | 1008.0 |
| 20260507170509 | 16 | 117 | 4.8 | 16.1 | 0.00 | 0.30 | 0.00 | 40 | 1008.1 |
| 20260507170412 | 16 | 99 | 3.2 | 16.1 | 0.00 | 0.30 | 0.00 | 40 | 1008.0 |
| 20260507170255 | 16 | 76 | 4.8 | 16.1 | 0.00 | 0.30 | 0.00 | 40 | 1008.1 |
| 20260507170219 | 16 | 101 | 4.8 | 16.1 | 0.00 | 0.30 | 0.00 | 39 | 1008.1 |
| 20260507170137 | 16 | 152 | 4.8 | 16.1 | 0.00 | 0.30 | 0.00 | 39 | 1008.1 |
| 20260507170001 | 16 | 96 | 4.8 | 16.1 | 0.00 | 0.30 | 0.00 | 40 | 1008.2 |
| 20260507165904 | 16 | 174 | 6.4 | 16.1 | 0.00 | 0.30 | 0.00 | 40 | 1008.3 |
| 20260507165808 | 16 | 99 | 6.4 | 16.1 | 0.00 | 0.30 | 0.00 | 40 | 1008.2 |
| 20260507165711 | 16 | 132 | 6.4 | 16.1 | 0.00 | 0.30 | 0.00 | 41 | 1008.2 |
| 20260507165614 | 16 | 108 | 3.2 | 16.1 | 0.00 | 0.30 | 0.00 | 40 | 1008.2 |
| 20260507165501 | 16 | 98 | 4.8 | 16.1 | 0.00 | 0.30 | 0.00 | 41 | 1008.2 |
| 20260507165404 | 16 | 51 | 4.8 | 16.1 | 0.00 | 0.30 | 0.00 | 40 | 1008.1 |
| 20260507165308 | 16 | 74 | 4.8 | 17.7 | 0.00 | 0.30 | 0.00 | 42 | 1008.2 |
| 20260507165211 | 16 | 77 | 3.2 | 17.7 | 0.00 | 0.30 | 0.00 | 41 | 1008.2 |
| 20260507165136 | 16 | 79 | 3.2 | 17.7 | 0.00 | 0.30 | 0.00 | 41 | 1008.2 |
| 20260507164957 | 16 | 209 | 3.2 | 17.7 | 0.00 | 0.30 | 0.00 | 42 | 1008.3 |
| 20260507164901 | 16 | 97 | 3.2 | 17.7 | 0.00 | 0.30 | 0.00 | 40 | 1008.3 |
| 20260507164809 | 16 | 99 | 6.4 | 17.7 | 0.00 | 0.30 | 0.00 | 41 | 1008.3 |
| 20260507164712 | 16 | 67 | 8.0 | 17.7 | 0.00 | 0.30 | 0.00 | 41 | 1008.3 |
| 20260507164555 | 16 | 149 | 8.0 | 17.7 | 0.00 | 0.30 | 0.00 | 40 | 1008.4 |
| 20260507164458 | 16 | 106 | 3.2 | 17.7 | 0.00 | 0.30 | 0.00 | 43 | 1008.4 |
| 20260507164401 | 16 | 97 | 1.6 | 14.5 | 0.00 | 0.30 | 0.00 | 42 | 1008.3 |
| 20260507164305 | 16 | 18 | 4.8 | 14.5 | 0.00 | 0.30 | 0.00 | 43 | 1008.4 |
| 20260507164212 | 16 | 91 | 4.8 | 14.5 | 0.00 | 0.30 | 0.00 | 42 | 1008.3 |
| 20260507164117 | 16 | 101 | 3.2 | 12.9 | 0.00 | 0.30 | 0.00 | 40 | 1008.3 |
| 20260507163958 | 16 | 108 | 3.2 | 12.9 | 0.00 | 0.30 | 0.00 | 41 | 1008.3 |
| 20260507163922 | 16 | 37 | 3.2 | 12.9 | 0.00 | 0.30 | 0.00 | 41 | 1008.3 |
| 20260507163826 | 16 | 98 | 4.8 | 16.1 | 0.00 | 0.30 | 0.00 | 42 | 1008.4 |
| 20260507163708 | 16 | 67 | 4.8 | 19.3 | 0.00 | 0.30 | 0.00 | 40 | 1008.4 |
| 20260507163612 | 16 | 81 | 4.8 | 19.3 | 0.00 | 0.30 | 0.00 | 41 | 1008.4 |
| 20260507163458 | 16 | 125 | 4.8 | 19.3 | 0.00 | 0.30 | 0.00 | 41 | 1008.5 |
| 20260507163402 | 16 | 39 | 3.2 | 19.3 | 0.00 | 0.30 | 0.00 | 41 | 1008.5 |
| 20260507163305 | 16 | 74 | 4.8 | 19.3 | 0.00 | 0.30 | 0.00 | 42 | 1008.5 |
| 20260507163228 | 16 | 92 | 6.4 | 19.3 | 0.00 | 0.30 | 0.00 | 41 | 1008.5 |
| 20260507163112 | 16 | 51 | 8.0 | 19.3 | 0.00 | 0.30 | 0.00 | 40 | 1008.4 |
| 20260507162954 | 16 | 106 | 6.4 | 19.3 | 0.00 | 0.30 | 0.00 | 42 | 1008.3 |
| 20260507162902 | 16 | 62 | 1.6 | 11.3 | 0.00 | 0.30 | 0.00 | 45 | 1008.3 |
| 20260507162805 | 16 | 106 | 1.6 | 17.7 | 0.00 | 0.30 | 0.00 | 44 | 1008.4 |
| 20260507162729 | 16 | 82 | 3.2 | 17.7 | 0.00 | 0.30 | 0.00 | 43 | 1008.4 |
| 20260507162611 | 16 | 141 | 4.8 | 17.7 | 0.00 | 0.30 | 0.00 | 43 | 1008.4 |
| 20260507162514 | 15 | 70 | 3.2 | 17.7 | 0.00 | 0.30 | 0.00 | 44 | 1008.4 |
| 20260507162357 | 15 | 69 | 3.2 | 17.7 | 0.00 | 0.30 | 0.00 | 44 | 1008.4 |
| 20260507162301 | 15 | 44 | 3.2 | 17.7 | 0.00 | 0.30 | 0.00 | 44 | 1008.5 |
| 20260507162209 | 15 | 132 | 3.2 | 17.7 | 0.00 | 0.30 | 0.00 | 43 | 1008.5 |
| 20260507162112 | 15 | 136 | 4.8 | 17.7 | 0.00 | 0.30 | 0.00 | 43 | 1008.6 |
| 20260507161954 | 15 | 108 | 6.4 | 19.3 | 0.00 | 0.30 | 0.00 | 46 | 1008.6 |
| 20260507161857 | 15 | 128 | 8.0 | 16.1 | 0.00 | 0.30 | 0.00 | 45 | 1008.5 |
| 20260507161801 | 15 | 113 | 6.4 | 16.1 | 0.00 | 0.30 | 0.00 | 45 | 1008.6 |
| 20260507161725 | 16 | 76 | 6.4 | 16.1 | 0.00 | 0.30 | 0.00 | 46 | 1008.5 |
| 20260507161613 | 16 | 108 | 6.4 | 16.1 | 0.00 | 0.30 | 0.00 | 44 | 1008.6 |
| 20260507161455 | 16 | 113 | 6.4 | 16.1 | 0.00 | 0.30 | 0.00 | 46 | 1008.6 |
| 20260507161358 | 16 | 83 | 4.8 | 19.3 | 0.00 | 0.30 | 0.00 | 50 | 1008.5 |
| 20260507161302 | 16 | 13 | 1.6 | 12.9 | 0.00 | 0.30 | 0.00 | 52 | 1008.6 |
| 20260507161205 | 16 | 68 | 1.6 | 11.3 | 0.00 | 0.30 | 0.00 | 52 | 1008.5 |
| 20260507161129 | 16 | 91 | 1.6 | 17.7 | 0.00 | 0.30 | 0.00 | 52 | 1008.5 |
| 20260507160954 | 16 | 69 | 1.6 | 17.7 | 0.00 | 0.30 | 0.00 | 54 | 1008.5 |
| 20260507160858 | 16 | 70 | 3.2 | 17.7 | 0.00 | 0.30 | 0.00 | 53 | 1008.5 |
| 20260507160801 | 16 | 87 | 3.2 | 17.7 | 0.00 | 0.30 | 0.00 | 53 | 1008.5 |
| 20260507160705 | 16 | 94 | 3.2 | 17.7 | 0.00 | 0.30 | 0.00 | 53 | 1008.5 |
| 20260507160609 | 15 | 23 | 4.8 | 17.7 | 0.00 | 0.30 | 0.00 | 53 | 1008.6 |
| 20260507160512 | 15 | 120 | 6.4 | 17.7 | 0.00 | 0.30 | 0.00 | 53 | 1008.6 |
| 20260507160359 | 15 | 108 | 8.0 | 17.7 | 0.00 | 0.30 | 0.00 | 53 | 1008.6 |
| 20260507160303 | 15 | 96 | 6.4 | 17.7 | 0.00 | 0.30 | 0.00 | 53 | 1008.6 |
| 20260507160206 | 15 | 91 | 6.4 | 17.7 | 0.00 | 0.30 | 0.00 | 54 | 1008.6 |
| 20260507160140 | 15 | 108 | 3.2 | 16.1 | 0.00 | 0.30 | 0.00 | 54 | 1008.6 |
| 20260507160005 | 15 | 152 | 1.6 | 17.7 | 0.00 | 0.30 | 0.00 | 56 | 1008.7 |
| 20260507155908 | 15 | 83 | 0.0 | 17.7 | 0.00 | 0.30 | 0.00 | 55 | 1008.7 |
| 20260507155812 | 15 | 46 | 0.0 | 17.7 | 0.00 | 0.30 | 0.00 | 55 | 1008.6 |
| 20260507155659 | 15 | 100 | 4.8 | 17.7 | 0.00 | 0.30 | 0.00 | 54 | 1008.6 |
| 20260507155603 | 15 | 60 | 8.0 | 17.7 | 0.00 | 0.30 | 0.00 | 53 | 1008.6 |
| 20260507155526 | 15 | 129 | 6.4 | 17.7 | 0.00 | 0.30 | 0.00 | 55 | 1008.6 |
| 20260507155409 | 15 | 42 | 8.0 | 17.7 | 0.00 | 0.30 | 0.00 | 56 | 1008.7 |
| 20260507155312 | 15 | 117 | 6.4 | 17.7 | 0.00 | 0.30 | 0.00 | 55 | 1008.7 |
| 20260507155156 | 15 | 59 | 3.2 | 12.9 | 0.00 | 0.30 | 0.00 | 57 | 1008.7 |
| 20260507155103 | 15 | 89 | 3.2 | 11.3 | 0.00 | 0.30 | 0.00 | 55 | 1008.7 |
| 20260507155006 | 15 | 89 | 1.6 | 11.3 | 0.00 | 0.30 | 0.00 | 56 | 1008.7 |
| 20260507154909 | 15 | 104 | 0.0 | 11.3 | 0.00 | 0.30 | 0.00 | 56 | 1008.7 |
| 20260507154813 | 15 | 79 | 0.0 | 11.3 | 0.00 | 0.30 | 0.00 | 56 | 1008.7 |
| 20260507154656 | 15 | 81 | 1.6 | 11.3 | 0.00 | 0.30 | 0.00 | 57 | 1008.7 |
| 20260507154600 | 15 | 79 | 3.2 | 11.3 | 0.00 | 0.30 | 0.00 | 58 | 1008.7 |
| 20260507154506 | 15 | 82 | 3.2 | 11.3 | 0.00 | 0.30 | 0.00 | 57 | 1008.7 |
| 20260507154409 | 15 | 99 | 3.2 | 14.5 | 0.00 | 0.30 | 0.00 | 57 | 1008.7 |
| 20260507154333 | 15 | 47 | 3.2 | 17.7 | 0.00 | 0.30 | 0.00 | 57 | 1008.7 |
| 20260507154156 | 15 | 60 | 1.6 | 17.7 | 0.00 | 0.30 | 0.00 | 57 | 1008.8 |
| 20260507154120 | 15 | 83 | 3.2 | 17.7 | 0.00 | 0.30 | 0.00 | 59 | 1008.8 |
| 20260507154021 | 15 | 65 | 1.6 | 17.7 | 0.00 | 0.30 | 0.00 | 61 | 1008.8 |
| 20260507153903 | 14 | 23 | 1.6 | 17.7 | 0.00 | 0.30 | 0.00 | 62 | 1008.8 |
| 20260507153807 | 14 | 65 | 1.6 | 17.7 | 0.00 | 0.30 | 0.00 | 60 | 1008.8 |
| 20260507153654 | 14 | 86 | 4.8 | 17.7 | 0.00 | 0.30 | 0.00 | 59 | 1008.8 |
| 20260507153559 | 14 | 101 | 8.0 | 17.7 | 0.00 | 0.30 | 0.00 | 59 | 1008.9 |
| 20260507153501 | 14 | 184 | 6.4 | 17.7 | 0.00 | 0.30 | 0.00 | 59 | 1008.8 |
| 20260507153405 | 14 | 99 | 4.8 | 14.5 | 0.00 | 0.30 | 0.00 | 60 | 1008.9 |
| 20260507153329 | 14 | 104 | 8.0 | 14.5 | 0.00 | 0.30 | 0.00 | 59 | 1008.9 |
| 20260507153232 | 14 | 190 | 6.4 | 11.3 | 0.00 | 0.30 | 0.00 | 59 | 1008.9 |
| 20260507153058 | 14 | 132 | 8.0 | 11.3 | 0.00 | 0.30 | 0.00 | 59 | 1008.9 |
| 20260507153000 | 14 | 214 | 6.4 | 11.3 | 0.00 | 0.30 | 0.00 | 58 | 1009.0 |
| 20260507152924 | 14 | 97 | 6.4 | 11.3 | 0.00 | 0.30 | 0.00 | 57 | 1009.0 |
| 20260507152807 | 15 | 145 | 6.4 | 11.3 | 0.00 | 0.30 | 0.00 | 57 | 1008.9 |
| 20260507152710 | 15 | 176 | 4.8 | 11.3 | 0.00 | 0.30 | 0.00 | 57 | 1009.0 |
| 20260507152634 | 15 | 81 | 3.2 | 11.3 | 0.00 | 0.30 | 0.00 | 59 | 1009.0 |
| 20260507152454 | 15 | 111 | 3.2 | 11.3 | 0.00 | 0.30 | 0.00 | 59 | 1009.1 |
| 20260507152402 | 15 | 141 | 1.6 | 11.3 | 0.00 | 0.30 | 0.00 | 61 | 1009.0 |
| 20260507152306 | 14 | 93 | 3.2 | 11.3 | 0.00 | 0.30 | 0.00 | 60 | 1008.9 |
| 20260507152209 | 14 | 113 | 4.8 | 12.9 | 0.00 | 0.30 | 0.00 | 62 | 1009.0 |
| 20260507152113 | 14 | 103 | 4.8 | 9.7 | 0.00 | 0.30 | 0.00 | 63 | 1008.9 |
| 20260507151955 | 14 | 159 | 1.6 | 11.3 | 0.00 | 0.30 | 0.00 | 63 | 1009.0 |
| 20260507151859 | 14 | 127 | 0.0 | 11.3 | 0.00 | 0.30 | 0.00 | 64 | 1009.0 |
| 20260507151823 | 13 | 87 | 0.0 | 11.3 | 0.00 | 0.30 | 0.00 | 65 | 1008.9 |
| 20260507151709 | 13 | 99 | 1.6 | 11.3 | 0.00 | 0.30 | 0.00 | 65 | 1009.0 |
| 20260507151633 | 13 | 100 | 3.2 | 11.3 | 0.00 | 0.30 | 0.00 | 64 | 1009.0 |
| 20260507151454 | 13 | 211 | 3.2 | 11.3 | 0.00 | 0.30 | 0.00 | 64 | 1009.0 |
| 20260507151358 | 14 | 122 | 4.8 | 11.3 | 0.00 | 0.30 | 0.00 | 64 | 1009.0 |
| 20260507151302 | 14 | 108 | 3.2 | 11.3 | 0.00 | 0.30 | 0.00 | 63 | 1009.1 |
| 20260507151205 | 14 | 108 | 3.2 | 9.7 | 0.00 | 0.30 | 0.00 | 64 | 1009.0 |
| 20260507151130 | 14 | 91 | 4.8 | 9.7 | 0.00 | 0.30 | 0.00 | 64 | 1009.1 |
| 20260507150955 | 14 | 91 | 3.2 | 11.3 | 0.00 | 0.30 | 0.00 | 64 | 1009.0 |
| 20260507150859 | 14 | 98 | 1.6 | 11.3 | 0.00 | 0.30 | 0.00 | 65 | 1009.0 |
| 20260507150802 | 14 | 84 | 1.6 | 9.7 | 0.00 | 0.30 | 0.00 | 64 | 1009.0 |
| 20260507150706 | 14 | 23 | 1.6 | 14.5 | 0.00 | 0.30 | 0.00 | 64 | 1009.0 |
| 20260507150609 | 14 | 77 | 1.6 | 14.5 | 0.00 | 0.30 | 0.00 | 65 | 1009.0 |
| 20260507150455 | 14 | 89 | 3.2 | 14.5 | 0.00 | 0.30 | 0.00 | 64 | 1009.0 |
| 20260507150359 | 14 | 72 | 1.6 | 14.5 | 0.00 | 0.30 | 0.00 | 65 | 1009.0 |
| 20260507150302 | 14 | 59 | 1.6 | 16.1 | 0.00 | 0.30 | 0.00 | 66 | 1009.0 |
| 20260507150206 | 14 | 79 | 4.8 | 16.1 | 0.00 | 0.30 | 0.00 | 65 | 1009.1 |
| 20260507150121 | 14 | 122 | 6.4 | 16.1 | 0.00 | 0.30 | 0.00 | 65 | 1009.1 |
| 20260507150006 | 14 | 134 | 8.0 | 16.1 | 0.00 | 0.30 | 0.00 | 65 | 1009.1 |
| 20260507145910 | 14 | 146 | 6.4 | 16.1 | 0.00 | 0.30 | 0.00 | 64 | 1009.1 |
| 20260507145816 | 14 | 181 | 3.2 | 16.1 | 0.00 | 0.30 | 0.00 | 67 | 1009.1 |
| 20260507145659 | 14 | 156 | 3.2 | 16.1 | 0.00 | 0.30 | 0.00 | 69 | 1009.1 |
| 20260507145603 | 14 | 96 | 6.4 | 16.1 | 0.00 | 0.30 | 0.00 | 67 | 1009.1 |
| 20260507145505 | 14 | 51 | 3.2 | 16.1 | 0.00 | 0.30 | 0.00 | 67 | 1009.2 |
| 20260507145409 | 14 | 15 | 1.6 | 8.0 | 0.00 | 0.30 | 0.00 | 68 | 1009.1 |
| 20260507145313 | 14 | 50 | 1.6 | 8.0 | 0.00 | 0.30 | 0.00 | 69 | 1009.2 |
| 20260507145200 | 14 | 82 | 0.0 | 8.0 | 0.00 | 0.30 | 0.00 | 71 | 1009.1 |
| 20260507145103 | 14 | 82 | 1.6 | 8.0 | 0.00 | 0.30 | 0.00 | 69 | 1009.2 |
| 20260507145006 | 13 | 75 | 1.6 | 8.0 | 0.00 | 0.30 | 0.00 | 70 | 1009.2 |
| 20260507144910 | 13 | 49 | 0.0 | 8.0 | 0.00 | 0.30 | 0.00 | 70 | 1009.2 |
| 20260507144813 | 13 | 74 | 0.0 | 8.0 | 0.00 | 0.30 | 0.00 | 71 | 1009.3 |
| 20260507144656 | 13 | 52 | 3.2 | 8.0 | 0.00 | 0.30 | 0.00 | 71 | 1009.3 |
| 20260507144605 | 13 | 100 | 3.2 | 8.0 | 0.00 | 0.30 | 0.00 | 71 | 1009.3 |
| 20260507144507 | 13 | 110 | 0.0 | 8.0 | 0.00 | 0.30 | 0.00 | 72 | 1009.3 |
| 20260507144411 | 13 | 106 | 0.0 | 8.0 | 0.00 | 0.30 | 0.00 | 72 | 1009.3 |
| 20260507144254 | 13 | 113 | 0.0 | 8.0 | 0.00 | 0.30 | 0.00 | 71 | 1009.3 |
| 20260507144158 | 13 | 114 | 0.0 | 8.0 | 0.00 | 0.30 | 0.00 | 69 | 1009.3 |
| 20260507144101 | 13 | 115 | 1.6 | 8.0 | 0.00 | 0.30 | 0.00 | 69 | 1009.3 |
| 20260507144028 | 13 | 152 | 3.2 | 11.3 | 0.00 | 0.30 | 0.00 | 70 | 1009.3 |
| 20260507143931 | 13 | 94 | 3.2 | 11.3 | 0.00 | 0.30 | 0.00 | 70 | 1009.3 |
| 20260507143813 | 13 | 123 | 0.0 | 11.3 | 0.00 | 0.30 | 0.00 | 70 | 1009.3 |
| 20260507143657 | 13 | 91 | 1.6 | 11.3 | 0.00 | 0.30 | 0.00 | 70 | 1009.2 |
| 20260507143621 | 13 | 112 | 3.2 | 11.3 | 0.00 | 0.30 | 0.00 | 70 | 1009.2 |
| 20260507143503 | 13 | 88 | 3.2 | 11.3 | 0.00 | 0.30 | 0.00 | 70 | 1009.3 |
| 20260507143407 | 13 | 104 | 4.8 | 11.3 | 0.00 | 0.30 | 0.00 | 69 | 1009.3 |
| 20260507143314 | 13 | 84 | 4.8 | 11.3 | 0.00 | 0.30 | 0.00 | 71 | 1009.3 |
| 20260507143157 | 13 | 110 | 3.2 | 11.3 | 0.00 | 0.30 | 0.00 | 70 | 1009.3 |
| 20260507143101 | 13 | 165 | 1.6 | 11.3 | 0.00 | 0.30 | 0.00 | 71 | 1009.3 |
| 20260507143003 | 13 | 108 | 0.0 | 11.3 | 0.00 | 0.30 | 0.00 | 71 | 1009.3 |
| 20260507142907 | 13 | 61 | 0.0 | 11.3 | 0.00 | 0.30 | 0.00 | 70 | 1009.3 |
| 20260507142810 | 13 | 60 | 0.0 | 12.9 | 0.00 | 0.30 | 0.00 | 69 | 1009.3 |
| 20260507142658 | 13 | 117 | 1.6 | 12.9 | 0.00 | 0.30 | 0.00 | 69 | 1009.3 |
| 20260507142602 | 13 | 166 | 3.2 | 12.9 | 0.00 | 0.30 | 0.00 | 70 | 1009.3 |
| 20260507142505 | 13 | 118 | 1.6 | 12.9 | 0.00 | 0.30 | 0.00 | 72 | 1009.4 |
| 20260507142429 | 13 | 118 | 1.6 | 12.9 | 0.00 | 0.30 | 0.00 | 72 | 1009.4 |
| 20260507142331 | 13 | 149 | 3.2 | 12.9 | 0.00 | 0.30 | 0.00 | 73 | 1009.4 |
| 20260507142213 | 13 | 105 | 4.8 | 12.9 | 0.00 | 0.30 | 0.00 | 73 | 1009.4 |
| 20260507142057 | 13 | 128 | 3.2 | 12.9 | 0.00 | 0.30 | 0.00 | 73 | 1009.4 |
| 20260507142003 | 13 | 76 | 1.6 | 12.9 | 0.00 | 0.30 | 0.00 | 74 | 1009.4 |
| 20260507141906 | 12 | 117 | 1.6 | 8.0 | 0.00 | 0.30 | 0.00 | 74 | 1009.5 |
| 20260507141810 | 12 | 132 | 3.2 | 8.0 | 0.00 | 0.30 | 0.00 | 73 | 1009.4 |
| 20260507141713 | 12 | 79 | 3.2 | 8.0 | 0.00 | 0.30 | 0.00 | 73 | 1009.5 |
| 20260507141558 | 12 | 121 | 3.2 | 9.7 | 0.00 | 0.30 | 0.00 | 73 | 1009.4 |
| 20260507141500 | 12 | 110 | 3.2 | 9.7 | 0.00 | 0.30 | 0.00 | 72 | 1009.5 |
| 20260507141408 | 13 | 106 | 3.2 | 9.7 | 0.00 | 0.30 | 0.00 | 74 | 1009.5 |
| 20260507141311 | 12 | 157 | 1.6 | 9.7 | 0.00 | 0.30 | 0.00 | 75 | 1009.4 |
| 20260507141154 | 12 | 72 | 0.0 | 9.7 | 0.00 | 0.30 | 0.00 | 77 | 1009.5 |
| 20260507141118 | 12 | 74 | 0.0 | 9.7 | 0.00 | 0.30 | 0.00 | 76 | 1009.5 |
| 20260507141000 | 12 | 68 | 0.0 | 9.7 | 0.00 | 0.30 | 0.00 | 77 | 1009.5 |
| 20260507140903 | 12 | 62 | 1.6 | 9.7 | 0.00 | 0.30 | 0.00 | 78 | 1009.5 |
| 20260507140811 | 12 | 121 | 3.2 | 9.7 | 0.00 | 0.30 | 0.00 | 76 | 1009.5 |
| 20260507140654 | 12 | 156 | 3.2 | 6.4 | 0.00 | 0.30 | 0.00 | 76 | 1009.5 |
| 20260507140559 | 12 | 115 | 1.6 | 6.4 | 0.00 | 0.30 | 0.00 | 77 | 1009.5 |
| 20260507140501 | 12 | 132 | 1.6 | 9.7 | 0.00 | 0.30 | 0.00 | 77 | 1009.5 |
| 20260507140406 | 12 | 132 | 1.6 | 9.7 | 0.00 | 0.30 | 0.00 | 77 | 1009.5 |
| 20260507140308 | 12 | 187 | 3.2 | 9.7 | 0.00 | 0.30 | 0.00 | 77 | 1009.4 |
| 20260507140156 | 12 | 96 | 3.2 | 9.7 | 0.00 | 0.30 | 0.00 | 79 | 1009.5 |
| 20260507140130 | 12 | 187 | 1.6 | 9.7 | 0.00 | 0.30 | 0.00 | 80 | 1009.5 |
| 20260507135955 | 12 | 96 | 1.6 | 9.7 | 0.00 | 0.30 | 0.00 | 79 | 1009.4 |
| 20260507135918 | 12 | 131 | 1.6 | 9.7 | 0.00 | 0.30 | 0.00 | 79 | 1009.4 |
| 20260507135821 | 12 | 148 | 3.2 | 9.7 | 0.00 | 0.30 | 0.00 | 79 | 1009.5 |
| 20260507135704 | 12 | 184 | 3.2 | 9.7 | 0.00 | 0.30 | 0.00 | 78 | 1009.5 |
| 20260507135607 | 12 | 118 | 3.2 | 9.7 | 0.00 | 0.30 | 0.00 | 81 | 1009.5 |
| 20260507135513 | 12 | 110 | 3.2 | 9.7 | 0.00 | 0.30 | 0.00 | 80 | 1009.6 |
| 20260507135357 | 12 | 94 | 1.6 | 9.7 | 0.00 | 0.30 | 0.00 | 80 | 1009.6 |
| 20260507135300 | 12 | 89 | 1.6 | 9.7 | 0.00 | 0.30 | 0.00 | 81 | 1009.6 |
| 20260507135204 | 12 | 146 | 1.6 | 9.7 | 0.00 | 0.30 | 0.00 | 82 | 1009.6 |
| 20260507135129 | 12 | 115 | 0.0 | 9.7 | 0.00 | 0.30 | 0.00 | 83 | 1009.6 |
| 20260507135010 | 12 | 57 | 0.0 | 9.7 | 0.00 | 0.30 | 0.00 | 82 | 1009.6 |
| 20260507134858 | 12 | 57 | 1.6 | 9.7 | 0.00 | 0.30 | 0.00 | 81 | 1009.6 |
| 20260507134822 | 12 | 109 | 3.2 | 9.7 | 0.00 | 0.30 | 0.00 | 80 | 1009.6 |
| 20260507134704 | 12 | 93 | 3.2 | 9.7 | 0.00 | 0.30 | 0.00 | 80 | 1009.6 |
| 20260507134608 | 12 | 97 | 3.2 | 9.7 | 0.00 | 0.30 | 0.00 | 81 | 1009.5 |
| 20260507134510 | 12 | 99 | 4.8 | 9.7 | 0.00 | 0.30 | 0.00 | 82 | 1009.6 |
| 20260507134414 | 12 | 98 | 3.2 | 9.7 | 0.00 | 0.30 | 0.00 | 83 | 1009.6 |
| 20260507134257 | 12 | 166 | 1.6 | 9.7 | 0.00 | 0.30 | 0.00 | 86 | 1009.6 |
| 20260507134204 | 12 | 60 | 0.0 | 9.7 | 0.00 | 0.30 | 0.00 | 85 | 1009.6 |
| 20260507134129 | 11 | 101 | 0.0 | 9.7 | 0.00 | 0.30 | 0.00 | 86 | 1009.6 |
| 20260507134011 | 11 | 103 | 0.0 | 9.7 | 0.00 | 0.30 | 0.00 | 85 | 1009.6 |
| 20260507133914 | 11 | 104 | 0.0 | 9.7 | 0.00 | 0.30 | 0.00 | 85 | 1009.6 |
| 20260507133757 | 11 | 91 | 3.2 | 9.7 | 0.00 | 0.30 | 0.00 | 85 | 1009.6 |
| 20260507133701 | 11 | 138 | 3.2 | 9.7 | 0.00 | 0.30 | 0.00 | 86 | 1009.6 |
| 20260507133609 | 11 | 127 | 3.2 | 9.7 | 0.00 | 0.30 | 0.00 | 86 | 1009.6 |
| 20260507133511 | 11 | 101 | 1.6 | 9.7 | 0.00 | 0.30 | 0.00 | 86 | 1009.6 |
| 20260507133435 | 11 | 127 | 1.6 | 11.3 | 0.00 | 0.30 | 0.00 | 86 | 1009.7 |
| 20260507133317 | 11 | 110 | 3.2 | 11.3 | 0.00 | 0.30 | 0.00 | 86 | 1009.7 |
| 20260507133200 | 11 | 76 | 1.6 | 11.3 | 0.00 | 0.30 | 0.00 | 87 | 1009.7 |
| 20260507133104 | 11 | 134 | 3.2 | 11.3 | 0.00 | 0.30 | 0.00 | 87 | 1009.7 |
| 20260507133007 | 11 | 87 | 3.2 | 11.3 | 0.00 | 0.30 | 0.00 | 88 | 1009.7 |
| 20260507132854 | 11 | 191 | 0.0 | 14.5 | 0.00 | 0.30 | 0.00 | 89 | 1009.7 |
| 20260507132818 | 11 | 112 | 1.6 | 14.5 | 0.00 | 0.30 | 0.00 | 89 | 1009.7 |
| 20260507132721 | 11 | 110 | 3.2 | 14.5 | 0.00 | 0.30 | 0.00 | 88 | 1009.7 |
| 20260507132603 | 11 | 106 | 3.2 | 14.5 | 0.00 | 0.30 | 0.00 | 88 | 1009.6 |
| 20260507132506 | 11 | 93 | 1.6 | 14.5 | 0.00 | 0.30 | 0.00 | 90 | 1009.7 |
| 20260507132409 | 11 | 100 | 1.6 | 14.5 | 0.00 | 0.30 | 0.00 | 90 | 1009.6 |
| 20260507132313 | 11 | 124 | 3.2 | 14.5 | 0.00 | 0.30 | 0.00 | 90 | 1009.7 |
| 20260507132200 | 11 | 89 | 4.8 | 14.5 | 0.00 | 0.30 | 0.00 | 90 | 1009.7 |
| 20260507132104 | 11 | 174 | 6.4 | 14.5 | 0.00 | 0.30 | 0.00 | 90 | 1009.7 |
| 20260507132006 | 11 | 141 | 4.8 | 14.5 | 0.00 | 0.30 | 0.00 | 90 | 1009.6 |
| 20260507131910 | 11 | 115 | 1.6 | 9.7 | 0.00 | 0.30 | 0.00 | 90 | 1009.6 |
| 20260507131813 | 11 | 72 | 3.2 | 8.0 | 0.00 | 0.30 | 0.00 | 91 | 1009.6 |
| 20260507131657 | 10 | 138 | 1.6 | 8.0 | 0.00 | 0.30 | 0.00 | 91 | 1009.7 |
| 20260507131605 | 10 | 125 | 0.0 | 14.5 | 0.00 | 0.30 | 0.00 | 91 | 1009.7 |
| 20260507131508 | 10 | 126 | 0.0 | 14.5 | 0.00 | 0.30 | 0.00 | 91 | 1009.7 |
| 20260507131411 | 10 | 74 | 0.0 | 14.5 | 0.00 | 0.30 | 0.00 | 92 | 1009.6 |
| 20260507131254 | 10 | 108 | 0.0 | 14.5 | 0.00 | 0.30 | 0.00 | 92 | 1009.6 |
| 20260507131157 | 10 | 108 | 1.6 | 14.5 | 0.00 | 0.30 | 0.00 | 91 | 1009.6 |
| 20260507131101 | 10 | 132 | 1.6 | 14.5 | 0.00 | 0.30 | 0.00 | 92 | 1009.6 |
| 20260507131008 | 10 | 103 | 0.0 | 14.5 | 0.00 | 0.30 | 0.00 | 92 | 1009.6 |
| 20260507130911 | 10 | 98 | 3.2 | 14.5 | 0.00 | 0.30 | 0.00 | 92 | 1009.6 |
| 20260507130755 | 10 | 98 | 4.8 | 14.5 | 0.00 | 0.30 | 0.00 | 92 | 1009.6 |
| 20260507130658 | 10 | 115 | 3.2 | 12.9 | 0.00 | 0.30 | 0.00 | 93 | 1009.6 |
| 20260507130602 | 10 | 108 | 1.6 | 9.7 | 0.00 | 0.30 | 0.00 | 93 | 1009.7 |
| 20260507130504 | 10 | 86 | 3.2 | 9.7 | 0.00 | 0.30 | 0.00 | 93 | 1009.8 |
| 20260507130412 | 10 | 203 | 3.2 | 11.3 | 0.00 | 0.30 | 0.00 | 93 | 1009.8 |
| 20260507130315 | 10 | 111 | 1.6 | 11.3 | 0.00 | 0.30 | 0.00 | 95 | 1009.8 |
| 20260507130218 | 10 | 159 | 1.6 | 11.3 | 0.00 | 0.30 | 0.00 | 95 | 1009.8 |
| 20260507130133 | 10 | 106 | 0.0 | 11.3 | 0.00 | 0.30 | 0.00 | 95 | 1009.8 |
| 20260507125957 | 10 | 98 | 0.0 | 11.3 | 0.00 | 0.30 | 0.00 | 95 | 1009.7 |
| 20260507125901 | 10 | 97 | 0.0 | 12.9 | 0.00 | 0.30 | 0.00 | 94 | 1009.8 |
| 20260507125804 | 10 | 98 | 1.6 | 12.9 | 0.00 | 0.30 | 0.00 | 94 | 1009.7 |
| 20260507125711 | 10 | 79 | 3.2 | 12.9 | 0.00 | 0.30 | 0.00 | 95 | 1009.8 |
| 20260507125555 | 10 | 96 | 3.2 | 12.9 | 0.00 | 0.30 | 0.00 | 95 | 1009.8 |
| 20260507125458 | 10 | 97 | 1.6 | 12.9 | 0.00 | 0.30 | 0.00 | 95 | 1009.8 |
| 20260507125401 | 10 | 118 | 3.2 | 12.9 | 0.00 | 0.30 | 0.00 | 95 | 1009.7 |
| 20260507125307 | 10 | 130 | 4.8 | 12.9 | 0.00 | 0.30 | 0.00 | 95 | 1009.7 |
| 20260507125208 | 10 | 128 | 6.4 | 12.9 | 0.00 | 0.30 | 0.00 | 96 | 1009.7 |
| 20260507125055 | 10 | 134 | 3.2 | 12.9 | 0.00 | 0.30 | 0.00 | 97 | 1009.7 |
| 20260507124958 | 10 | 110 | 0.0 | 8.0 | 0.00 | 0.30 | 0.00 | 97 | 1009.7 |
| 20260507124901 | 10 | 110 | 0.0 | 8.0 | 0.00 | 0.30 | 0.00 | 97 | 1009.6 |
| 20260507124805 | 10 | 104 | 0.0 | 8.0 | 0.00 | 0.30 | 0.00 | 98 | 1009.6 |
| 20260507124729 | 10 | 335 | 0.0 | 8.0 | 0.00 | 0.30 | 0.00 | 98 | 1009.7 |
| 20260507124611 | 10 | 79 | 0.0 | 8.0 | 0.00 | 0.30 | 0.00 | 98 | 1009.6 |
| 20260507124458 | 10 | 111 | 1.6 | 8.0 | 0.00 | 0.30 | 0.00 | 98 | 1009.7 |
| 20260507124401 | 10 | 118 | 3.2 | 8.0 | 0.00 | 0.30 | 0.00 | 98 | 1009.6 |
| 20260507124305 | 10 | 115 | 3.2 | 8.0 | 0.00 | 0.30 | 0.00 | 98 | 1009.6 |
| 20260507124208 | 10 | 110 | 0.0 | 4.8 | 0.00 | 0.30 | 0.00 | 98 | 1009.6 |
| 20260507124113 | 10 | 108 | 1.6 | 4.8 | 0.00 | 0.30 | 0.00 | 98 | 1009.6 |
| 20260507124015 | 10 | 104 | 1.6 | 4.8 | 0.00 | 0.30 | 0.00 | 99 | 1009.6 |
| 20260507123902 | 10 | 113 | 0.0 | 1.6 | 0.00 | 0.30 | 0.00 | 99 | 1009.6 |
| 20260507123805 | 10 | 40 | 0.0 | 1.6 | 0.00 | 0.30 | 0.00 | 99 | 1009.6 |
| 20260507123729 | 10 | 91 | 0.0 | 3.2 | 0.00 | 0.30 | 0.00 | 99 | 1009.6 |
| 20260507123613 | 10 | 91 | 0.0 | 3.2 | 0.00 | 0.30 | 0.00 | 99 | 1009.5 |
| 20260507123455 | 10 | 111 | 0.0 | 4.8 | 0.00 | 0.30 | 0.00 | 99 | 1009.6 |
| 20260507123418 | 10 | 132 | 0.0 | 4.8 | 0.00 | 0.30 | 0.00 | 99 | 1009.6 |
| 20260507123301 | 10 | 94 | 0.0 | 4.8 | 0.00 | 0.30 | 0.00 | 99 | 1009.6 |
| 20260507123209 | 9 | 115 | 0.0 | 4.8 | 0.00 | 0.30 | 0.00 | 99 | 1009.6 |
| 20260507123112 | 9 | 115 | 0.0 | 4.8 | 0.00 | 0.30 | 0.00 | 99 | 1009.7 |
| 20260507122954 | 9 | 115 | 0.0 | 4.8 | 0.00 | 0.30 | 0.00 | 99 | 1009.7 |
| 20260507122858 | 9 | 139 | 1.6 | 4.8 | 0.00 | 0.30 | 0.00 | 99 | 1009.7 |
| 20260507122801 | 9 | 138 | 1.6 | 4.8 | 0.00 | 0.30 | 0.00 | 99 | 1009.7 |
| 20260507122706 | 9 | 152 | 1.6 | 4.8 | 0.00 | 0.30 | 0.00 | 99 | 1009.8 |
| 20260507122613 | 9 | 101 | 0.0 | 4.8 | 0.00 | 0.30 | 0.00 | 99 | 1009.9 |
| 20260507122456 | 9 | 108 | 1.6 | 4.8 | 0.00 | 0.30 | 0.00 | 99 | 1009.9 |
| 20260507122419 | 9 | 90 | 1.6 | 4.8 | 0.00 | 0.30 | 0.00 | 99 | 1009.9 |
| 20260507122306 | 9 | 187 | 0.0 | 1.6 | 0.00 | 0.30 | 0.00 | 99 | 1010.0 |
| 20260507122206 | 9 | 80 | 0.0 | 1.6 | 0.00 | 0.30 | 0.00 | 99 | 1010.1 |
| 20260507122109 | 9 | 98 | 0.0 | 1.6 | 0.00 | 0.30 | 0.00 | 99 | 1010.1 |
| 20260507121956 | 9 | 69 | 0.0 | 1.6 | 0.00 | 0.30 | 0.30 | 99 | 1010.0 |
| 20260507121859 | 9 | 98 | 0.0 | 1.6 | 0.00 | 0.30 | 0.30 | 99 | 1010.0 |
| 20260507121802 | 9 | 98 | 0.0 | 1.6 | 0.00 | 0.30 | 0.30 | 99 | 1010.0 |
| 20260507121706 | 9 | 98 | 0.0 | 1.6 | 0.00 | 0.30 | 0.30 | 99 | 1010.0 |
| 20260507121610 | 9 | 98 | 0.0 | 1.6 | 0.00 | 0.30 | 0.30 | 99 | 1010.0 |
| 20260507121512 | 9 | 97 | 0.0 | 1.6 | 0.00 | 0.30 | 0.30 | 99 | 1010.0 |
| 20260507121400 | 9 | 97 | 0.0 | 1.6 | 0.00 | 0.30 | 0.30 | 99 | 1010.0 |
| 20260507121303 | 8 | 79 | 0.0 | 1.6 | 0.00 | 0.30 | 0.30 | 99 | 1010.1 |
| 20260507121206 | 8 | 79 | 0.0 | 1.6 | 0.00 | 0.30 | 0.30 | 99 | 1010.1 |
| 20260507121111 | 8 | 79 | 0.0 | 1.6 | 0.00 | 0.30 | 0.30 | 99 | 1010.1 |
| 20260507121013 | 8 | 74 | 0.0 | 1.6 | 0.00 | 0.30 | 0.30 | 99 | 1010.0 |
| 20260507120857 | 8 | 74 | 0.0 | 1.6 | 0.00 | 0.30 | 0.30 | 99 | 1009.9 |
| 20260507120804 | 8 | 74 | 0.0 | 1.6 | 0.00 | 0.30 | 0.30 | 99 | 1009.8 |
| 20260507120708 | 8 | 94 | 0.0 | 1.6 | 0.00 | 0.30 | 0.30 | 99 | 1009.7 |
| 20260507120611 | 8 | 94 | 0.0 | 1.6 | 0.00 | 0.30 | 0.30 | 99 | 1009.7 |
| 20260507120514 | 8 | 94 | 0.0 | 1.6 | 0.00 | 0.30 | 0.30 | 99 | 1009.7 |
| 20260507120357 | 8 | 97 | 0.0 | 1.6 | 0.00 | 0.30 | 0.30 | 99 | 1009.6 |
| 20260507120300 | 8 | 98 | 0.0 | 1.6 | 0.00 | 0.30 | 0.30 | 99 | 1009.6 |
| 20260507120208 | 8 | 98 | 0.0 | 1.6 | 0.00 | 0.30 | 0.30 | 99 | 1009.6 |
| 20260507120123 | 8 | 98 | 0.0 | 1.6 | 0.00 | 0.30 | 0.30 | 99 | 1009.6 |
| 20260507120008 | 8 | 78 | 0.0 | 1.6 | 0.00 | 0.30 | 0.30 | 99 | 1009.6 |
| 20260507115911 | 8 | 77 | 0.0 | 1.6 | 0.00 | 0.30 | 0.30 | 99 | 1009.5 |
| 20260507115815 | 8 | 77 | 0.0 | 1.6 | 0.00 | 0.30 | 0.30 | 99 | 1009.5 |
| 20260507115658 | 8 | 77 | 0.0 | 1.6 | 0.00 | 0.30 | 0.30 | 99 | 1009.5 |
| 20260507115602 | 8 | 77 | 0.0 | 0.0 | 0.00 | 0.30 | 0.30 | 99 | 1009.5 |
| 20260507115509 | 8 | 78 | 0.0 | 0.0 | 0.00 | 0.30 | 0.30 | 99 | 1009.5 |
| 20260507115411 | 8 | 77 | 0.0 | 0.0 | 0.00 | 0.30 | 0.30 | 99 | 1009.5 |
| 20260507115254 | 8 | 77 | 0.0 | 1.6 | 0.00 | 0.30 | 0.30 | 99 | 1009.6 |
| 20260507115158 | 8 | 77 | 0.0 | 1.6 | 0.00 | 0.30 | 0.30 | 99 | 1009.6 |
| 20260507115123 | 8 | 77 | 0.0 | 1.6 | 0.00 | 0.30 | 0.30 | 99 | 1009.6 |
| 20260507115004 | 8 | 78 | 0.0 | 1.6 | 0.00 | 0.30 | 0.30 | 99 | 1009.7 |
| 20260507114912 | 8 | 77 | 0.0 | 1.6 | 0.00 | 0.30 | 0.30 | 99 | 1009.7 |
| 20260507114755 | 8 | 77 | 0.0 | 1.6 | 0.00 | 0.30 | 0.30 | 99 | 1009.7 |
| 20260507114658 | 8 | 77 | 0.0 | 1.6 | 0.00 | 0.30 | 0.30 | 99 | 1009.6 |
| 20260507114602 | 8 | 77 | 0.0 | 1.6 | 0.00 | 0.30 | 0.30 | 99 | 1009.6 |
| 20260507114505 | 8 | 78 | 0.0 | 1.6 | 0.00 | 0.30 | 0.30 | 99 | 1009.5 |
| 20260507114428 | 8 | 78 | 0.0 | 0.0 | 0.00 | 0.30 | 0.30 | 99 | 1009.4 |
| 20260507114255 | 8 | 78 | 0.0 | 0.0 | 0.00 | 0.30 | 0.30 | 99 | 1009.4 |
| 20260507114219 | 8 | 78 | 0.0 | 0.0 | 0.00 | 0.30 | 0.30 | 99 | 1009.4 |
| 20260507114058 | 8 | 78 | 0.0 | 0.0 | 0.00 | 0.30 | 0.30 | 99 | 1009.4 |
| 20260507114000 | 8 | 77 | 0.0 | 0.0 | 0.00 | 0.30 | 0.30 | 99 | 1009.5 |
| 20260507113904 | 8 | 78 | 0.0 | 0.0 | 0.00 | 0.30 | 0.30 | 99 | 1009.6 |
| 20260507113807 | 8 | 77 | 0.0 | 0.0 | 0.00 | 0.30 | 0.30 | 99 | 1009.6 |
| 20260507113711 | 8 | 78 | 0.0 | 0.0 | 0.00 | 0.30 | 0.30 | 99 | 1009.6 |
| 20260507113600 | 8 | 77 | 0.0 | 0.0 | 0.00 | 0.30 | 0.30 | 99 | 1009.6 |
| 20260507113502 | 8 | 77 | 0.0 | 0.0 | 0.00 | 0.30 | 0.30 | 99 | 1009.6 |
| 20260507113406 | 8 | 77 | 0.0 | 0.0 | 0.00 | 0.30 | 0.30 | 99 | 1009.6 |
| 20260507113309 | 8 | 77 | 0.0 | 0.0 | 0.00 | 0.30 | 0.30 | 99 | 1009.6 |
| 20260507113212 | 8 | 77 | 0.0 | 0.0 | 0.00 | 0.30 | 0.30 | 99 | 1009.7 |
| 20260507113056 | 8 | 78 | 0.0 | 0.0 | 0.00 | 0.30 | 0.30 | 99 | 1009.7 |
| 20260507113002 | 8 | 77 | 0.0 | 0.0 | 0.00 | 0.30 | 0.30 | 99 | 1009.7 |
| 20260507112906 | 8 | 78 | 0.0 | 0.0 | 0.00 | 0.30 | 0.30 | 99 | 1009.7 |
| 20260507112809 | 8 | 77 | 0.0 | 0.0 | 0.00 | 0.30 | 0.30 | 99 | 1009.6 |
| 20260507112713 | 8 | 77 | 0.0 | 0.0 | 0.00 | 0.30 | 0.30 | 99 | 1009.6 |
| 20260507112557 | 8 | 77 | 0.0 | 1.6 | 0.00 | 0.30 | 0.30 | 99 | 1009.5 |
| 20260507112520 | 8 | 78 | 0.0 | 1.6 | 0.00 | 0.30 | 0.30 | 99 | 1009.6 |
| 20260507112423 | 8 | 78 | 0.0 | 1.6 | 0.00 | 0.30 | 0.30 | 99 | 1009.6 |
| 20260507112309 | 8 | 77 | 0.0 | 1.6 | 0.00 | 0.30 | 0.30 | 99 | 1009.6 |
| 20260507112213 | 8 | 77 | 0.0 | 1.6 | 0.00 | 0.30 | 0.30 | 99 | 1009.5 |
| 20260507112056 | 8 | 77 | 0.0 | 1.6 | 0.00 | 0.30 | 0.30 | 99 | 1009.6 |
| 20260507111958 | 8 | 78 | 0.0 | 1.6 | 0.00 | 0.30 | 0.30 | 99 | 1009.5 |
| 20260507111922 | 8 | 77 | 526.3 | 1.6 | 0.00 | 0.30 | 0.30 | 99 | 1009.5 |
| 20260507111825 | 8 | 77 | 526.3 | 1.6 | 0.00 | 0.30 | 0.30 | 99 | 1009.5 |
| 20260507111606 | -17 | 0.0 | 0.0 | 0.00 | 0.30 | 0.30 | 1009.4 | ||
| 20260507111509 | -17 | 0.0 | 0.0 | 0.00 | 0.30 | 0.30 | 1009.4 | ||
| 20260507111411 | -17 | 0.0 | 0.0 | 0.00 | 0.30 | 0.30 | 1009.3 | ||
| 20260507111255 | -17 | 0.0 | 0.0 | 0.00 | 0.30 | 0.30 | 1009.3 | ||
| 20260507111158 | -17 | 0.0 | 0.0 | 0.00 | 0.30 | 0.30 | 1009.4 | ||
| 20260507111102 | -17 | 0.0 | 0.0 | 0.00 | 0.30 | 0.30 | 1009.4 | ||
| 20260507111008 | -17 | 0.0 | 0.0 | 0.00 | 0.30 | 0.30 | 1009.4 | ||
| 20260507110912 | -17 | 0.0 | 0.0 | 0.00 | 0.30 | 0.30 | 1009.4 | ||
| 20260507110755 | -17 | 0.0 | 0.0 | 0.00 | 0.30 | 0.30 | 1009.4 | ||
| 20260507110659 | -17 | 0.0 | 0.0 | 0.00 | 0.30 | 0.30 | 1009.4 | ||
| 20260507110603 | -17 | 0.0 | 0.0 | 0.00 | 0.30 | 0.30 | 1009.4 | ||
| 20260507110505 | -17 | 0.0 | 0.0 | 0.00 | 0.30 | 0.30 | 1009.4 | ||
| 20260507110413 | -17 | 0.0 | 0.0 | 0.00 | 0.30 | 0.30 | 1009.4 | ||
| 20260507110256 | -17 | 0.0 | 0.0 | 0.00 | 0.30 | 0.30 | 1009.3 | ||
| 20260507110200 | -17 | 0.0 | 0.0 | 0.00 | 0.30 | 0.30 | 1009.3 | ||
| 20260507110115 | -17 | 0.0 | 0.0 | 0.00 | 0.30 | 0.30 | 1009.3 | ||
| 20260507110020 | -17 | 0.0 | 0.0 | 0.00 | 0.30 | 0.30 | 1009.4 | ||
| 20260507105944 | -17 | 0.0 | 0.0 | 0.00 | 0.30 | 0.30 | 1009.4 | ||
| 20260507105740 | -17 | 0.0 | 0.0 | 0.00 | 0.30 | 0.30 | 1009.4 | ||
| 20260507105201 | -17 | 0.0 | 0.0 | 0.00 | 0.30 | 0.30 | 1009.1 | ||
| 20260507105124 | -17 | 0.0 | 0.0 | 0.00 | 0.30 | 0.30 | 1009.0 | ||
| 20260507105005 | -17 | 0.0 | 0.0 | 0.00 | 0.30 | 0.30 | 1008.9 | ||
| 20260507104930 | -17 | 0.0 | 0.0 | 0.00 | 0.30 | 0.30 | 1009.0 | ||
| 20260507104834 | -17 | 0.0 | 0.0 | 0.00 | 0.30 | 0.30 | 1009.0 | ||
| 20260507104656 | -17 | 0.0 | 0.0 | 0.00 | 0.30 | 0.30 | 1009.2 | ||
| 20260507104605 | -17 | 0.0 | 0.0 | 0.00 | 0.30 | 0.30 | 1009.3 | ||
| 20260507104508 | -17 | 0.0 | 0.0 | 0.00 | 0.30 | 0.30 | 1009.3 | ||
| 20260507104411 | -17 | 0.0 | 0.0 | 0.00 | 0.30 | 0.30 | 1009.2 | ||
| 20260507104254 | -17 | 0.0 | 0.0 | 0.00 | 0.30 | 0.30 | 1009.1 | ||
| 20260507104158 | -17 | 0.0 | 0.0 | 0.00 | 0.30 | 0.30 | 1009.0 | ||
| 20260507104102 | -17 | 0.0 | 0.0 | 0.00 | 0.30 | 0.30 | 1009.1 | ||
| 20260507104008 | -17 | 0.0 | 0.0 | 0.00 | 0.30 | 0.30 | 1009.1 | ||
| 20260507103911 | -17 | 0.0 | 0.0 | 0.00 | 0.30 | 0.30 | 1009.2 | ||
| 20260507103754 | -17 | 0.0 | 0.0 | 0.00 | 0.30 | 0.30 | 1009.2 | ||
| 20260507103658 | -17 | 0.0 | 0.0 | 0.00 | 0.30 | 0.30 | 1009.2 | ||
| 20260507103623 | -17 | 0.0 | 0.0 | 0.00 | 0.30 | 0.30 | 1009.2 | ||
| 20260507103525 | -17 | 0.0 | 0.0 | 0.00 | 0.30 | 0.30 | 1009.2 | ||
| 20260507103407 | -17 | 0.0 | 0.0 | 0.00 | 0.30 | 0.30 | 1009.1 | ||
| 20260507103330 | -17 | 0.0 | 0.0 | 0.00 | 0.30 | 0.30 | 1009.1 | ||
| 20260507103259 | -17 | 0.0 | 0.0 | 0.00 | 0.30 | 0.30 | 1009.0 | ||
| 20260507102715 | -17 | 0.0 | 0.0 | 0.00 | 0.30 | 0.30 | 1009.4 | ||
| 20260507102611 | -17 | 0.0 | 0.0 | 0.00 | 0.30 | 0.30 | 1009.5 | ||
| 20260507102514 | -17 | 0.0 | 0.0 | 0.00 | 0.30 | 0.30 | 1009.5 | ||
| 20260507102357 | -17 | 0.0 | 0.0 | 0.00 | 0.30 | 0.30 | 1009.5 | ||
| 20260507102307 | -17 | 0.0 | 0.0 | 0.00 | 0.30 | 0.30 | 1009.5 | ||
| 20260507102208 | -17 | 0.0 | 0.0 | 0.00 | 0.30 | 0.30 | 1009.4 | ||
| 20260507102112 | -17 | 0.0 | 0.0 | 0.00 | 0.30 | 0.30 | 1009.4 | ||
| 20260507102014 | -17 | 0.0 | 0.0 | 0.00 | 0.30 | 0.30 | 1009.4 | ||
| 20260507101857 | -17 | 0.0 | 0.0 | 0.00 | 0.30 | 0.30 | 1009.4 | ||
| 20260507101822 | -17 | 0.0 | 0.0 | 0.00 | 0.30 | 0.30 | 1009.5 | ||
| 20260507101709 | -17 | 0.0 | 0.0 | 0.00 | 0.30 | 0.30 | 1009.5 | ||
| 20260507101613 | -17 | 0.0 | 0.0 | 0.00 | 0.30 | 0.30 | 1009.6 | ||
| 20260507101456 | -17 | 0.0 | 0.0 | 0.00 | 0.30 | 0.30 | 1009.6 | ||
| 20260507101359 | -17 | 0.0 | 0.0 | 0.00 | 0.30 | 0.30 | 1009.6 | ||
| 20260507101303 | -17 | 0.0 | 0.0 | 0.00 | 0.30 | 0.30 | 1009.6 | ||
| 20260507101206 | -17 | 0.0 | 0.0 | 0.00 | 0.30 | 0.30 | 1009.6 | ||
| 20260507101114 | -17 | 0.0 | 0.0 | 0.00 | 0.30 | 0.30 | 1009.5 | ||
| 20260507100956 | -17 | 0.0 | 0.0 | 0.00 | 0.30 | 0.30 | 1009.5 | ||
| 20260507100920 | -17 | 0.0 | 0.0 | 0.00 | 0.30 | 0.30 | 1009.4 | ||
| 20260507100844 | -17 | 0.0 | 0.0 | 0.00 | 0.30 | 0.30 | 1009.4 | ||
| 20260507100639 | -17 | 0.0 | 0.0 | 0.00 | 0.30 | 0.30 | 1009.3 | ||
| 20260507100115 | -17 | 0.0 | 0.0 | 0.00 | 0.30 | 0.30 | 1009.3 | ||
| 20260507100005 | -17 | 0.0 | 0.0 | 0.00 | 0.30 | 0.30 | 1009.3 | ||
| 20260507095908 | -17 | 0.0 | 0.0 | 0.00 | 0.30 | 0.30 | 1009.3 | ||
| 20260507095811 | -17 | 0.0 | 0.0 | 0.00 | 0.30 | 0.30 | 1009.3 | ||
| 20260507095735 | -17 | 0.0 | 0.0 | 0.00 | 0.30 | 0.30 | 1009.3 | ||
| 20260507095558 | -17 | 0.0 | 0.0 | 0.00 | 0.30 | 0.30 | 1009.2 | ||
| 20260507095501 | -17 | 0.0 | 0.0 | 0.00 | 0.30 | 0.30 | 1009.2 | ||
| 20260507095408 | -17 | 0.0 | 0.0 | 0.00 | 0.30 | 0.30 | 1009.2 | ||
| 20260507095312 | -17 | 0.0 | 0.0 | 0.00 | 0.30 | 0.30 | 1009.2 | ||
| 20260507095155 | -17 | 0.0 | 0.0 | 0.00 | 0.30 | 0.30 | 1009.2 | ||
| 20260507095059 | -17 | 0.0 | 0.0 | 0.00 | 0.30 | 0.30 | 1009.2 | ||
| 20260507095001 | -17 | 0.0 | 0.0 | 0.00 | 0.30 | 0.30 | 1009.2 | ||
| 20260507094925 | -17 | 0.0 | 0.0 | 0.00 | 0.30 | 0.30 | 1009.3 | ||
| 20260507094829 | -17 | 0.0 | 0.0 | 0.00 | 0.30 | 0.30 | 1009.4 | ||
| 20260507094655 | -17 | 0.0 | 0.0 | 0.00 | 0.30 | 0.30 | 1009.4 | ||
| 20260507094600 | -17 | 0.0 | 0.0 | 0.00 | 0.30 | 0.30 | 1009.4 | ||
| 20260507094502 | -17 | 0.0 | 0.0 | 0.00 | 0.30 | 0.30 | 1009.2 | ||
| 20260507094406 | -17 | 0.0 | 0.0 | 0.00 | 0.30 | 0.30 | 1009.2 | ||
| 20260507094309 | -17 | 0.0 | 0.0 | 0.00 | 0.30 | 0.30 | 1009.0 | ||
| 20260507093557 | -17 | 0.0 | 0.0 | 0.00 | 0.30 | 0.30 | 1008.8 | ||
| 20260507093459 | -17 | 0.0 | 0.0 | 0.00 | 0.30 | 0.30 | 1008.8 | ||
| 20260507093403 | -17 | 0.0 | 0.0 | 0.00 | 0.30 | 0.30 | 1008.8 | ||
| 20260507093306 | -17 | 0.0 | 0.0 | 0.00 | 0.30 | 0.30 | 1008.8 | ||
| 20260507093210 | -17 | 0.0 | 0.0 | 0.00 | 0.30 | 0.30 | 1008.9 | ||
| 20260507093058 | -17 | 0.0 | 0.0 | 0.00 | 0.30 | 0.30 | 1009.0 | ||
| 20260507093022 | -17 | 0.0 | 0.0 | 0.00 | 0.30 | 0.30 | 1009.0 | ||
| 20260507092904 | -17 | 0.0 | 0.0 | 0.00 | 0.30 | 0.30 | 1008.9 | ||
| 20260507092808 | -17 | 0.0 | 0.0 | 0.00 | 0.30 | 0.30 | 1008.9 | ||
| 20260507092712 | -17 | 0.0 | 0.0 | 0.00 | 0.30 | 0.30 | 1009.0 | ||
| 20260507092615 | -17 | 0.0 | 0.0 | 0.00 | 0.30 | 0.30 | 1009.0 | ||
| 20260507092502 | -17 | 0.0 | 0.0 | 0.00 | 0.30 | 0.30 | 1009.0 | ||
| 20260507092405 | -17 | 0.0 | 0.0 | 0.00 | 0.30 | 0.30 | 1009.0 | ||
| 20260507092308 | -17 | 0.0 | 0.0 | 0.00 | 0.30 | 0.30 | 1008.9 | ||
| 20260507092232 | -17 | 0.0 | 0.0 | 0.00 | 0.30 | 0.30 | 1008.9 | ||
| 20260507092055 | -17 | 0.0 | 0.0 | 0.00 | 0.30 | 0.30 | 1008.9 | ||
| 20260507092018 | -17 | 0.0 | 0.0 | 0.00 | 0.30 | 0.30 | 1008.9 | ||
| 20260507091900 | -17 | 0.0 | 0.0 | 0.00 | 0.30 | 0.30 | 1008.9 | ||
| 20260507091824 | -17 | 0.0 | 0.0 | 0.00 | 0.30 | 0.30 | 1008.9 | ||
| 20260507091744 | -17 | 0.0 | 0.0 | 0.00 | 0.30 | 0.30 | 1008.9 | ||
| 20260507091707 | -17 | 0.0 | 0.0 | 0.00 | 0.30 | 0.30 | 1008.8 | ||
| 20260507091556 | -17 | 0.0 | 0.0 | 0.00 | 0.30 | 0.30 | 1008.8 | ||
| 20260507091343 | -17 | 0.0 | 0.0 | 0.00 | 0.30 | 0.30 | 1008.9 | ||
| 20260507091212 | -17 | 0.0 | 0.0 | 0.00 | 0.30 | 0.30 | 1008.8 | ||
| 20260507091100 | -17 | 0.0 | 0.0 | 0.00 | 0.30 | 0.30 | 1008.8 | ||
| 20260507091002 | -17 | 0.0 | 0.0 | 0.00 | 0.30 | 0.30 | 1008.7 | ||
| 20260507090926 | -17 | 0.0 | 0.0 | 0.00 | 0.30 | 0.30 | 1008.7 | ||
| 20260507090829 | -17 | 0.0 | 0.0 | 0.00 | 0.30 | 0.30 | 1008.7 | ||
| 20260507090655 | -17 | 0.0 | 0.0 | 0.00 | 0.30 | 0.30 | 1008.8 | ||
| 20260507090600 | -17 | 0.0 | 0.0 | 0.00 | 0.30 | 0.30 | 1008.8 | ||
| 20260507090502 | -17 | 0.0 | 0.0 | 0.00 | 0.30 | 0.30 | 1008.8 | ||
| 20260507090405 | -17 | 0.0 | 0.0 | 0.00 | 0.30 | 0.30 | 1008.9 | ||
| 20260507090309 | -17 | 0.0 | 0.0 | 0.00 | 0.30 | 0.30 | 1008.9 | ||
| 20260507090233 | -17 | 0.0 | 0.0 | 0.00 | 0.30 | 0.30 | 1008.9 | ||
| 20260507090130 | -17 | 0.0 | 0.0 | 0.00 | 0.30 | 0.30 | 1008.8 | ||
| 20260507085955 | -17 | 0.0 | 0.0 | 0.00 | 0.30 | 0.30 | 1008.7 | ||
| 20260507085918 | -17 | 0.0 | 0.0 | 0.00 | 0.30 | 0.30 | 1008.7 | ||
| 20260507085821 | -17 | 0.0 | 0.0 | 0.00 | 0.30 | 0.30 | 1008.6 | ||
| 20260507085704 | -17 | 0.0 | 0.0 | 0.00 | 0.30 | 0.30 | 1008.5 | ||
| 20260507085608 | -17 | 0.0 | 0.0 | 0.00 | 0.30 | 0.30 | 1008.5 | ||
| 20260507085531 | -17 | 0.0 | 0.0 | 0.00 | 0.30 | 0.30 | 1008.4 | ||
| 20260507085413 | -17 | 0.0 | 0.0 | 0.00 | 0.30 | 0.30 | 1008.4 | ||
| 20260507084748 | -17 | 0.0 | 0.0 | 0.00 | 0.30 | 0.30 | 1008.6 | ||
| 20260507084557 | -17 | 0.0 | 0.0 | 0.00 | 0.30 | 0.30 | 1008.6 | ||
| 20260507084459 | -17 | 0.0 | 0.0 | 0.03 | 0.30 | 0.30 | 1008.8 | ||
| 20260507084402 | -17 | 0.0 | 0.0 | 0.03 | 0.30 | 0.30 | 1008.9 | ||
| 20260507084310 | -17 | 0.0 | 0.0 | 0.03 | 0.30 | 0.30 | 1008.9 | ||
| 20260507084214 | -17 | 0.0 | 0.0 | 0.03 | 0.30 | 0.30 | 1008.9 | ||
| 20260507084058 | -17 | 0.0 | 0.0 | 0.03 | 0.30 | 0.30 | 1008.8 | ||
| 20260507084000 | -17 | 0.0 | 0.0 | 0.05 | 0.30 | 0.30 | 1008.9 | ||
| 20260507083904 | -17 | 0.0 | 0.0 | 0.05 | 0.30 | 0.30 | 1008.8 | ||
| 20260507083808 | -17 | 0.0 | 0.0 | 0.08 | 0.30 | 0.30 | 1008.7 | ||
| 20260507083655 | -17 | 0.0 | 0.0 | 0.08 | 0.30 | 0.30 | 1008.8 | ||
| 20260507083558 | -17 | 0.0 | 0.0 | 0.08 | 0.30 | 0.30 | 1008.8 | ||
| 20260507083501 | -17 | 0.0 | 0.0 | 0.10 | 0.30 | 0.30 | 1008.8 | ||
| 20260507083404 | -17 | 0.0 | 0.0 | 0.10 | 0.30 | 0.30 | 1008.8 | ||
| 20260507083308 | -17 | 0.0 | 0.0 | 0.10 | 0.30 | 0.30 | 1008.8 | ||
| 20260507083211 | -17 | 0.0 | 0.0 | 0.13 | 0.30 | 0.30 | 1008.8 | ||
| 20260507083120 | -17 | 0.0 | 0.0 | 0.13 | 0.30 | 0.30 | 1008.8 | ||
| 20260507083022 | -17 | 0.0 | 0.0 | 0.13 | 0.30 | 0.30 | 1008.8 | ||
| 20260507082925 | -17 | 0.0 | 0.0 | 0.15 | 0.30 | 0.30 | 1008.8 | ||
| 20260507082848 | -17 | 0.0 | 0.0 | 0.15 | 0.30 | 0.30 | 1008.9 | ||
| 20260507082750 | -17 | 0.0 | 0.0 | 0.15 | 0.30 | 0.30 | 1008.8 | ||
| 20260507082631 | -17 | 0.0 | 0.0 | 0.15 | 0.30 | 0.30 | 1008.9 | ||
| 20260507082530 | -17 | 0.0 | 0.0 | 0.18 | 0.30 | 0.30 | 1008.9 | ||
| 20260507082055 | -17 | 0.0 | 0.0 | 0.20 | 0.30 | 0.30 | 1008.6 | ||
| 20260507082002 | -17 | 0.0 | 0.0 | 0.20 | 0.30 | 0.30 | 1008.6 | ||
| 20260507081905 | -17 | 0.0 | 0.0 | 0.20 | 0.30 | 0.30 | 1008.7 | ||
| 20260507081809 | -17 | 0.0 | 0.0 | 0.20 | 0.30 | 0.30 | 1008.6 | ||
| 20260507081713 | -17 | 0.0 | 0.0 | 0.20 | 0.30 | 0.30 | 1008.6 | ||
| 20260507081556 | -17 | 0.0 | 0.0 | 0.20 | 0.30 | 0.30 | 1008.6 | ||
| 20260507081458 | -17 | 0.0 | 0.0 | 0.20 | 0.30 | 0.30 | 1008.6 | ||
| 20260507081422 | -17 | 0.0 | 0.0 | 0.20 | 0.30 | 0.30 | 1008.5 | ||
| 20260507081308 | -17 | 0.0 | 0.0 | 0.20 | 0.30 | 0.30 | 1008.4 | ||
| 20260507081212 | -17 | 0.0 | 0.0 | 0.20 | 0.30 | 0.30 | 1008.4 | ||
| 20260507081056 | -17 | 0.0 | 0.0 | 0.20 | 0.30 | 0.30 | 1008.4 | ||
| 20260507081019 | -17 | 0.0 | 0.0 | 0.20 | 0.30 | 0.30 | 1008.5 | ||
| 20260507080922 | -17 | 0.0 | 0.0 | 0.20 | 0.30 | 0.30 | 1008.6 | ||
| 20260507080805 | -17 | 0.0 | 0.0 | 0.20 | 0.30 | 0.30 | 1008.6 | ||
| 20260507080708 | -17 | 0.0 | 0.0 | 0.20 | 0.30 | 0.30 | 1008.7 | ||
| 20260507080555 | -17 | 0.0 | 0.0 | 0.20 | 0.30 | 0.30 | 1008.7 | ||
| 20260507080458 | -17 | 0.0 | 0.0 | 0.20 | 0.30 | 0.30 | 1008.7 | ||
| 20260507080401 | -17 | 0.0 | 0.0 | 0.20 | 0.30 | 0.30 | 1008.8 | ||
| 20260507080022 | 9 | 70 | 1.6 | 12.9 | 0.20 | 0.30 | 0.30 | 98 | 1009.0 |
| 20260507075901 | 9 | 70 | 1.6 | 12.9 | 0.20 | 0.30 | 0.30 | 98 | 1009.1 |
| 20260507075806 | 9 | 70 | 1.6 | 12.9 | 0.20 | 0.30 | 0.30 | 98 | 1009.1 |
| 20260507075709 | 9 | 70 | 1.6 | 12.9 | 0.20 | 0.30 | 0.30 | 98 | 1009.1 |
| 20260507075614 | 9 | 70 | 1.6 | 12.9 | 0.20 | 0.30 | 0.30 | 98 | 1009.0 |
| 20260507075456 | 9 | 70 | 1.6 | 12.9 | 0.20 | 0.30 | 0.30 | 98 | 1009.0 |
| 20260507075400 | 9 | 70 | 1.6 | 12.9 | 0.20 | 0.30 | 0.30 | 98 | 1008.8 |
| 20260507075306 | 10 | 137 | 1.6 | 12.9 | 0.20 | 0.30 | 0.30 | 94 | 1008.8 |
| 20260507075211 | 10 | 82 | 0.0 | 4.8 | 0.20 | 0.30 | 0.30 | 94 | 1008.8 |
| 20260507075114 | 10 | 82 | 0.0 | 4.8 | 0.20 | 0.30 | 0.30 | 94 | 1008.9 |
| 20260507074957 | 10 | 108 | 0.0 | 4.8 | 0.20 | 0.30 | 0.30 | 94 | 1008.9 |
| 20260507074900 | 10 | 108 | 0.0 | 4.8 | 0.20 | 0.30 | 0.30 | 94 | 1008.9 |
| 20260507074804 | 10 | 108 | 1.6 | 4.8 | 0.20 | 0.30 | 0.30 | 94 | 1008.9 |
| 20260507074727 | 10 | 108 | 1.6 | 4.8 | 0.20 | 0.30 | 0.30 | 93 | 1008.9 |
| 20260507074611 | 10 | 108 | 0.0 | 4.8 | 0.18 | 0.28 | 0.28 | 93 | 1008.8 |
| 20260507074457 | 10 | 62 | 0.0 | 16.1 | 0.18 | 0.28 | 0.28 | 93 | 1008.6 |
| 20260507074400 | 10 | 63 | 0.0 | 16.1 | 0.18 | 0.28 | 0.28 | 93 | 1008.5 |
| 20260507074304 | 10 | 62 | 1.6 | 16.1 | 0.18 | 0.28 | 0.28 | 93 | 1008.6 |
| 20260507074208 | 10 | 131 | 1.6 | 16.1 | 0.18 | 0.28 | 0.28 | 92 | 1008.6 |
| 20260507074111 | 10 | 100 | 0.0 | 16.1 | 0.15 | 0.25 | 0.25 | 92 | 1008.8 |
| 20260507073958 | 11 | 100 | 1.6 | 16.1 | 0.15 | 0.25 | 0.25 | 92 | 1008.8 |
| 20260507073901 | 11 | 146 | 3.2 | 16.1 | 0.15 | 0.25 | 0.25 | 92 | 1008.9 |
| 20260507073805 | 11 | 142 | 4.8 | 16.1 | 0.13 | 0.23 | 0.23 | 92 | 1009.0 |
| 20260507073708 | 11 | 120 | 3.2 | 16.1 | 0.13 | 0.23 | 0.23 | 92 | 1009.0 |
| 20260507073613 | 11 | 158 | 1.6 | 9.7 | 0.10 | 0.20 | 0.20 | 92 | 1008.9 |
| 20260507073455 | 11 | 123 | 1.6 | 9.7 | 0.10 | 0.20 | 0.20 | 92 | 1008.7 |
| 20260507073402 | 11 | 105 | 1.6 | 11.3 | 0.10 | 0.20 | 0.20 | 92 | 1008.6 |
| 20260507073306 | 11 | 115 | 1.6 | 9.7 | 0.10 | 0.20 | 0.20 | 92 | 1008.7 |
| 20260507073209 | 11 | 101 | 3.2 | 9.7 | 0.08 | 0.18 | 0.18 | 92 | 1008.8 |
| 20260507073113 | 11 | 105 | 3.2 | 9.7 | 0.08 | 0.18 | 0.18 | 91 | 1008.7 |
| 20260507072955 | 11 | 135 | 1.6 | 9.7 | 0.05 | 0.15 | 0.15 | 91 | 1008.6 |
| 20260507072859 | 11 | 90 | 1.6 | 9.7 | 0.05 | 0.15 | 0.15 | 91 | 1008.4 |
| 20260507072822 | 11 | 168 | 1.6 | 8.0 | 0.05 | 0.15 | 0.15 | 91 | 1008.4 |
| 20260507072709 | 11 | 100 | 1.6 | 8.0 | 0.03 | 0.13 | 0.13 | 90 | 1008.3 |
| 20260507072614 | 11 | 103 | 1.6 | 8.0 | 0.03 | 0.13 | 0.13 | 90 | 1008.2 |
| 20260507072456 | 11 | 106 | 1.6 | 8.0 | 0.03 | 0.13 | 0.13 | 90 | 1008.0 |
| 20260507072359 | 11 | 108 | 1.6 | 8.0 | 0.00 | 0.10 | 0.10 | 90 | 1008.0 |
| 20260507072306 | 11 | 115 | 0.0 | 8.0 | 0.00 | 0.10 | 0.10 | 90 | 1007.8 |
| 20260507072227 | 11 | 120 | 1.6 | 8.0 | 0.00 | 0.10 | 0.10 | 90 | 1007.7 |
| 20260507072114 | 12 | 129 | 1.6 | 8.0 | 0.00 | 0.10 | 0.10 | 90 | 1007.7 |
| 20260507071957 | 12 | 110 | 1.6 | 8.0 | 0.00 | 0.10 | 0.10 | 90 | 1007.6 |
| 20260507071920 | 12 | 123 | 1.6 | 6.4 | 0.00 | 0.10 | 0.10 | 90 | 1007.5 |
| 20260507071803 | 12 | 96 | 1.6 | 4.8 | 0.00 | 0.10 | 0.10 | 90 | 1007.4 |
| 20260507071707 | 12 | 104 | 0.0 | 4.8 | 0.00 | 0.10 | 0.10 | 90 | 1007.4 |
| 20260507071611 | 12 | 106 | 0.0 | 4.8 | 0.00 | 0.10 | 0.10 | 90 | 1007.5 |
| 20260507071457 | 12 | 186 | 0.0 | 8.0 | 0.00 | 0.10 | 0.10 | 90 | 1007.6 |
| 20260507071421 | 12 | 123 | 0.0 | 8.0 | 0.00 | 0.10 | 0.10 | 90 | 1007.7 |
| 20260507071324 | 12 | 125 | 0.0 | 8.0 | 0.00 | 0.10 | 0.10 | 90 | 1007.6 |
| 20260507071206 | 12 | 125 | 0.0 | 8.0 | 0.00 | 0.10 | 0.10 | 90 | 1007.7 |
| 20260507071130 | 12 | 113 | 0.0 | 8.0 | 0.00 | 0.10 | 0.10 | 90 | 1007.6 |
| 20260507071012 | 12 | 111 | 0.0 | 8.0 | 0.00 | 0.10 | 0.10 | 90 | 1007.6 |
| 20260507070855 | 12 | 82 | 0.0 | 8.0 | 0.00 | 0.10 | 0.10 | 90 | 1007.5 |
| 20260507070759 | 12 | 106 | 1.6 | 8.0 | 0.00 | 0.10 | 0.10 | 90 | 1007.5 |
| 20260507070726 | 12 | 93 | 1.6 | 8.0 | 0.00 | 0.10 | 0.10 | 90 | 1007.5 |
| 20260507070610 | 12 | 111 | 0.0 | 8.0 | 0.00 | 0.10 | 0.10 | 91 | 1007.4 |
| 20260507070512 | 12 | 123 | 0.0 | 8.0 | 0.00 | 0.10 | 0.10 | 91 | 1007.4 |
| 20260507070356 | 12 | 122 | 0.0 | 8.0 | 0.00 | 0.10 | 0.10 | 91 | 1007.5 |
| 20260507070259 | 12 | 123 | 0.0 | 8.0 | 0.00 | 0.10 | 0.10 | 91 | 1007.6 |
| 20260507070202 | 12 | 117 | 3.2 | 8.0 | 0.00 | 0.10 | 0.10 | 91 | 1007.7 |
| 20260507070120 | 12 | 118 | 3.2 | 8.0 | 0.00 | 0.10 | 0.10 | 91 | 1007.7 |
| 20260507070010 | 12 | 93 | 1.6 | 8.0 | 0.00 | 0.10 | 0.10 | 91 | 1007.7 |
| 20260507065909 | 12 | 108 | 0.0 | 4.8 | 0.00 | 0.10 | 0.10 | 91 | 1007.7 |
| 20260507065813 | 12 | 105 | 0.0 | 6.4 | 0.00 | 0.10 | 0.10 | 91 | 1007.6 |
| 20260507065656 | 12 | 112 | 0.0 | 6.4 | 0.00 | 0.10 | 0.10 | 92 | 1007.5 |
| 20260507065600 | 12 | 113 | 0.0 | 6.4 | 0.00 | 0.10 | 0.10 | 91 | 1007.5 |
| 20260507065507 | 12 | 113 | 0.0 | 6.4 | 0.00 | 0.10 | 0.10 | 91 | 1007.5 |
| 20260507065431 | 12 | 115 | 0.0 | 6.4 | 0.00 | 0.10 | 0.10 | 91 | 1007.5 |
| 20260507065313 | 12 | 112 | 1.6 | 6.4 | 0.00 | 0.10 | 0.10 | 91 | 1007.6 |
| 20260507065156 | 12 | 137 | 1.6 | 9.7 | 0.00 | 0.10 | 0.10 | 92 | 1007.6 |
| 20260507065100 | 12 | 103 | 0.0 | 9.7 | 0.00 | 0.10 | 0.10 | 92 | 1007.7 |
| 20260507065002 | 12 | 103 | 1.6 | 9.7 | 0.00 | 0.10 | 0.10 | 92 | 1007.6 |
| 20260507064927 | 12 | 160 | 0.0 | 9.7 | 0.00 | 0.10 | 0.10 | 92 | 1007.7 |
| 20260507064813 | 12 | 89 | 0.0 | 9.7 | 0.00 | 0.10 | 0.10 | 92 | 1007.7 |
| 20260507064656 | 12 | 89 | 0.0 | 9.7 | 0.00 | 0.10 | 0.10 | 92 | 1007.7 |
| 20260507064600 | 12 | 89 | 0.0 | 9.7 | 0.00 | 0.10 | 0.10 | 92 | 1007.7 |
| 20260507064502 | 12 | 149 | 1.6 | 9.7 | 0.00 | 0.10 | 0.10 | 92 | 1007.6 |
| 20260507064406 | 12 | 148 | 1.6 | 9.7 | 0.00 | 0.10 | 0.10 | 92 | 1007.6 |
| 20260507064330 | 12 | 75 | 0.0 | 6.4 | 0.00 | 0.10 | 0.10 | 92 | 1007.6 |
| 20260507064156 | 12 | 97 | 0.0 | 6.4 | 0.00 | 0.10 | 0.10 | 92 | 1007.7 |
| 20260507064121 | 12 | 97 | 1.6 | 6.4 | 0.00 | 0.10 | 0.10 | 92 | 1007.7 |
| 20260507064002 | 12 | 100 | 3.2 | 6.4 | 0.00 | 0.10 | 0.10 | 92 | 1007.7 |
| 20260507063906 | 12 | 137 | 3.2 | 6.4 | 0.00 | 0.10 | 0.10 | 92 | 1007.6 |
| 20260507063809 | 12 | 101 | 1.6 | 6.4 | 0.00 | 0.10 | 0.10 | 92 | 1007.6 |
| 20260507063712 | 12 | 105 | 0.0 | 4.8 | 0.00 | 0.10 | 0.10 | 92 | 1007.6 |
| 20260507063616 | 12 | 51 | 0.0 | 4.8 | 0.00 | 0.10 | 0.10 | 92 | 1007.6 |
| 20260507063502 | 12 | 16 | 0.0 | 4.8 | 0.00 | 0.10 | 0.10 | 92 | 1007.7 |
| 20260507063405 | 12 | 108 | 0.0 | 4.8 | 0.00 | 0.10 | 0.10 | 92 | 1007.7 |
| 20260507063309 | 12 | 141 | 0.0 | 4.8 | 0.00 | 0.10 | 0.10 | 92 | 1007.7 |
| 20260507063212 | 12 | 79 | 0.0 | 4.8 | 0.00 | 0.10 | 0.10 | 92 | 1007.7 |
| 20260507063057 | 12 | 108 | 1.6 | 4.8 | 0.00 | 0.10 | 0.10 | 92 | 1007.7 |
| 20260507062959 | 12 | 142 | 1.6 | 4.8 | 0.00 | 0.10 | 0.10 | 92 | 1007.8 |
| 20260507062906 | 12 | 140 | 0.0 | 4.8 | 0.00 | 0.10 | 0.10 | 93 | 1007.8 |
| 20260507062810 | 12 | 101 | 0.0 | 4.8 | 0.00 | 0.10 | 0.10 | 93 | 1007.7 |
| 20260507062714 | 12 | 101 | 0.0 | 4.8 | 0.00 | 0.10 | 0.10 | 93 | 1007.7 |
| 20260507062557 | 12 | 58 | 0.0 | 6.4 | 0.00 | 0.10 | 0.10 | 93 | 1007.6 |
| 20260507062500 | 13 | 89 | 1.6 | 6.4 | 0.00 | 0.10 | 0.10 | 93 | 1007.7 |
| 20260507062403 | 13 | 114 | 1.6 | 8.0 | 0.00 | 0.10 | 0.10 | 93 | 1007.7 |
| 20260507062311 | 13 | 101 | 1.6 | 8.0 | 0.00 | 0.10 | 0.10 | 93 | 1007.7 |
| 20260507062154 | 13 | 108 | 0.0 | 8.0 | 0.00 | 0.10 | 0.10 | 93 | 1007.7 |
| 20260507062119 | 13 | 100 | 0.0 | 8.0 | 0.00 | 0.10 | 0.10 | 93 | 1007.8 |
| 20260507062000 | 13 | 76 | 0.0 | 8.0 | 0.00 | 0.10 | 0.10 | 93 | 1007.8 |
| 20260507061904 | 13 | 76 | 1.6 | 8.0 | 0.00 | 0.10 | 0.10 | 93 | 1007.7 |
| 20260507061807 | 13 | 122 | 1.6 | 8.0 | 0.00 | 0.10 | 0.10 | 93 | 1007.7 |
| 20260507061731 | 13 | 113 | 1.6 | 8.0 | 0.00 | 0.10 | 0.10 | 93 | 1007.6 |
| 20260507061557 | 13 | 127 | 3.2 | 8.0 | 0.00 | 0.10 | 0.10 | 93 | 1007.5 |
| 20260507061500 | 13 | 113 | 1.6 | 6.4 | 0.00 | 0.10 | 0.10 | 93 | 1007.5 |
| 20260507061404 | 13 | 104 | 1.6 | 6.4 | 0.00 | 0.10 | 0.10 | 93 | 1007.5 |
| 20260507061307 | 13 | 74 | 1.6 | 6.4 | 0.00 | 0.10 | 0.10 | 94 | 1007.7 |
| 20260507061211 | 13 | 112 | 0.0 | 6.4 | 0.00 | 0.10 | 0.10 | 94 | 1007.7 |
| 20260507061114 | 13 | 78 | 0.0 | 6.4 | 0.00 | 0.10 | 0.10 | 94 | 1007.7 |
| 20260507061000 | 13 | 91 | 0.0 | 4.8 | 0.00 | 0.10 | 0.10 | 94 | 1007.7 |
| 20260507060925 | 13 | 91 | 0.0 | 4.8 | 0.00 | 0.10 | 0.10 | 94 | 1007.7 |
| 20260507060808 | 13 | 123 | 0.0 | 4.8 | 0.00 | 0.10 | 0.10 | 94 | 1007.8 |
| 20260507060711 | 13 | 69 | 0.0 | 8.0 | 0.00 | 0.10 | 0.10 | 94 | 1007.8 |
| 20260507060556 | 13 | 69 | 0.0 | 9.7 | 0.00 | 0.10 | 0.10 | 94 | 1007.9 |
| 20260507060458 | 13 | 69 | 0.0 | 9.7 | 0.00 | 0.10 | 0.10 | 94 | 1007.8 |
| 20260507060405 | 13 | 100 | 0.0 | 9.7 | 0.00 | 0.10 | 0.10 | 94 | 1007.9 |
| 20260507060309 | 13 | 106 | 0.0 | 9.7 | 0.00 | 0.10 | 0.10 | 93 | 1007.8 |
| 20260507060213 | 13 | 106 | 0.0 | 9.7 | 0.00 | 0.10 | 0.10 | 93 | 1007.8 |
| 20260507060127 | 13 | 72 | 0.0 | 9.7 | 0.00 | 0.10 | 0.10 | 93 | 1007.8 |
| 20260507060013 | 13 | 67 | 4.8 | 9.7 | 0.00 | 0.10 | 0.10 | 93 | 1007.9 |
| 20260507055856 | 13 | 101 | 4.8 | 9.7 | 0.00 | 0.10 | 0.10 | 93 | 1007.8 |
| 20260507055804 | 13 | 120 | 1.6 | 8.0 | 0.00 | 0.10 | 0.10 | 93 | 1007.9 |
| 20260507055707 | 13 | 85 | 0.0 | 8.0 | 0.00 | 0.10 | 0.10 | 93 | 1007.9 |
| 20260507055611 | 13 | 112 | 0.0 | 8.0 | 0.00 | 0.10 | 0.10 | 93 | 1007.9 |
| 20260507055513 | 13 | 140 | 0.0 | 8.0 | 0.00 | 0.10 | 0.10 | 93 | 1008.0 |
| 20260507055356 | 13 | 118 | 0.0 | 8.0 | 0.00 | 0.10 | 0.10 | 93 | 1008.0 |
| 20260507055300 | 13 | 128 | 1.6 | 8.0 | 0.00 | 0.10 | 0.10 | 93 | 1008.0 |
| 20260507055207 | 13 | 108 | 1.6 | 8.0 | 0.00 | 0.10 | 0.10 | 93 | 1008.1 |
| 20260507055111 | 13 | 96 | 0.0 | 4.8 | 0.00 | 0.10 | 0.10 | 93 | 1008.1 |
| 20260507055013 | 13 | 96 | 0.0 | 4.8 | 0.00 | 0.10 | 0.10 | 93 | 1008.1 |
| 20260507054857 | 13 | 102 | 0.0 | 4.8 | 0.00 | 0.10 | 0.10 | 93 | 1008.2 |
| 20260507054800 | 13 | 100 | 0.0 | 4.8 | 0.00 | 0.10 | 0.10 | 93 | 1008.2 |
| 20260507054724 | 13 | 103 | 0.0 | 4.8 | 0.00 | 0.10 | 0.10 | 93 | 1008.2 |
| 20260507054628 | 13 | 103 | 1.6 | 4.8 | 0.00 | 0.10 | 0.10 | 93 | 1008.2 |
| 20260507054514 | 13 | 103 | 1.6 | 4.8 | 0.00 | 0.10 | 0.10 | 93 | 1008.1 |
| 20260507054356 | 13 | 76 | 0.0 | 4.8 | 0.00 | 0.10 | 0.10 | 93 | 1008.1 |
| 20260507054300 | 13 | 76 | 0.0 | 4.8 | 0.00 | 0.10 | 0.10 | 93 | 1008.2 |
| 20260507054223 | 13 | 77 | 0.0 | 4.8 | 0.00 | 0.10 | 0.10 | 93 | 1008.1 |
| 20260507054103 | 13 | 81 | 1.6 | 4.8 | 0.00 | 0.10 | 0.10 | 93 | 1008.2 |
| 20260507054026 | 13 | 91 | 0.0 | 9.7 | 0.00 | 0.10 | 0.10 | 94 | 1008.1 |
| 20260507053909 | 13 | 114 | 0.0 | 9.7 | 0.00 | 0.10 | 0.10 | 94 | 1008.1 |
| 20260507053816 | 13 | 96 | 0.0 | 9.7 | 0.00 | 0.10 | 0.10 | 94 | 1008.0 |
| 20260507053719 | 13 | 91 | 0.0 | 9.7 | 0.00 | 0.10 | 0.10 | 94 | 1008.0 |
| 20260507053602 | 13 | 115 | 0.0 | 9.7 | 0.00 | 0.10 | 0.10 | 94 | 1008.0 |
| 20260507053504 | 13 | 113 | 1.6 | 9.7 | 0.00 | 0.10 | 0.10 | 94 | 1008.0 |
| 20260507053408 | 13 | 120 | 1.6 | 9.7 | 0.00 | 0.10 | 0.10 | 94 | 1008.1 |
| 20260507053311 | 13 | 83 | 1.6 | 9.7 | 0.00 | 0.10 | 0.10 | 94 | 1008.1 |
| 20260507053155 | 13 | 131 | 1.6 | 9.7 | 0.00 | 0.10 | 0.10 | 94 | 1008.2 |
| 20260507053103 | 13 | 92 | 1.6 | 8.0 | 0.00 | 0.10 | 0.10 | 94 | 1008.1 |
| 20260507053026 | 13 | 108 | 0.0 | 8.0 | 0.00 | 0.10 | 0.10 | 95 | 1008.3 |
| 20260507052929 | 13 | 117 | 0.0 | 8.0 | 0.00 | 0.10 | 0.10 | 95 | 1008.2 |
| 20260507052811 | 13 | 117 | 1.6 | 8.0 | 0.00 | 0.10 | 0.10 | 95 | 1008.2 |
| 20260507052654 | 13 | 117 | 1.6 | 9.7 | 0.00 | 0.10 | 0.10 | 95 | 1008.2 |
| 20260507052558 | 13 | 108 | 0.0 | 6.4 | 0.00 | 0.10 | 0.10 | 95 | 1008.2 |
| 20260507052521 | 13 | 108 | 1.6 | 6.4 | 0.00 | 0.10 | 0.10 | 95 | 1008.2 |
| 20260507052408 | 13 | 148 | 1.6 | 6.4 | 0.00 | 0.10 | 0.10 | 95 | 1008.1 |
| 20260507052311 | 14 | 110 | 0.0 | 4.8 | 0.00 | 0.10 | 0.10 | 96 | 1008.1 |
| 20260507052154 | 14 | 79 | 0.0 | 4.8 | 0.00 | 0.10 | 0.10 | 96 | 1008.2 |
| 20260507052058 | 14 | 79 | 0.0 | 6.4 | 0.00 | 0.10 | 0.10 | 96 | 1008.2 |
| 20260507052000 | 14 | 83 | 0.0 | 6.4 | 0.00 | 0.10 | 0.10 | 96 | 1008.3 |
| 20260507051903 | 14 | 89 | 0.0 | 6.4 | 0.00 | 0.10 | 0.10 | 96 | 1008.3 |
| 20260507051810 | 14 | 118 | 0.0 | 6.4 | 0.00 | 0.10 | 0.10 | 96 | 1008.3 |
| 20260507051714 | 14 | 98 | 0.0 | 6.4 | 0.00 | 0.10 | 0.10 | 96 | 1008.3 |
| 20260507051558 | 14 | 97 | 0.0 | 6.4 | 0.00 | 0.10 | 0.10 | 96 | 1008.3 |
| 20260507051521 | 14 | 98 | 1.6 | 6.4 | 0.00 | 0.10 | 0.10 | 96 | 1008.2 |
| 20260507051403 | 14 | 97 | 1.6 | 6.4 | 0.00 | 0.10 | 0.10 | 97 | 1008.2 |
| 20260507051307 | 14 | 115 | 1.6 | 6.4 | 0.00 | 0.10 | 0.10 | 97 | 1008.1 |
| 20260507051154 | 14 | 105 | 0.0 | 1.6 | 0.00 | 0.10 | 0.10 | 97 | 1008.0 |
| 20260507051058 | 14 | 106 | 0.0 | 1.6 | 0.00 | 0.10 | 0.10 | 97 | 1008.0 |
| 20260507050959 | 14 | 105 | 0.0 | 1.6 | 0.00 | 0.10 | 0.10 | 97 | 1008.1 |
| 20260507050903 | 14 | 106 | 0.0 | 4.8 | 0.00 | 0.10 | 0.10 | 97 | 1008.0 |
| 20260507050806 | 14 | 108 | 0.0 | 4.8 | 0.00 | 0.10 | 0.10 | 97 | 1008.0 |
| 20260507050710 | 14 | 107 | 0.0 | 4.8 | 0.00 | 0.10 | 0.10 | 97 | 1008.0 |
| 20260507050614 | 14 | 108 | 0.0 | 4.8 | 0.00 | 0.10 | 0.10 | 97 | 1008.1 |
| 20260507050501 | 14 | 108 | 0.0 | 4.8 | 0.00 | 0.10 | 0.10 | 97 | 1008.1 |
| 20260507050404 | 14 | 95 | 0.0 | 4.8 | 0.00 | 0.10 | 0.10 | 97 | 1008.1 |
| 20260507050308 | 14 | 94 | 0.0 | 4.8 | 0.00 | 0.10 | 0.10 | 97 | 1008.2 |
| 20260507050211 | 14 | 120 | 0.0 | 4.8 | 0.00 | 0.10 | 0.10 | 97 | 1008.2 |
| 20260507050146 | 14 | 159 | 0.0 | 4.8 | 0.00 | 0.10 | 0.10 | 97 | 1008.2 |
| 20260507050010 | 14 | 65 | 0.0 | 1.6 | 0.00 | 0.10 | 0.10 | 97 | 1008.2 |
| 20260507045857 | 14 | 65 | 0.0 | 1.6 | 0.00 | 0.10 | 0.10 | 97 | 1008.2 |
| 20260507045800 | 14 | 99 | 0.0 | 1.6 | 0.00 | 0.10 | 0.10 | 97 | 1008.2 |
| 20260507045724 | 14 | 74 | 0.0 | 1.6 | 0.00 | 0.10 | 0.10 | 97 | 1008.2 |
| 20260507045607 | 14 | 74 | 0.0 | 1.6 | 0.00 | 0.10 | 0.10 | 97 | 1008.2 |
| 20260507045530 | 14 | 74 | 0.0 | 3.2 | 0.00 | 0.10 | 0.10 | 97 | 1008.2 |
| 20260507045411 | 14 | 76 | 0.0 | 3.2 | 0.00 | 0.10 | 0.10 | 97 | 1008.2 |
| 20260507045335 | 14 | 76 | 0.0 | 3.2 | 0.00 | 0.10 | 0.10 | 97 | 1008.3 |
| 20260507045157 | 14 | 76 | 0.0 | 3.2 | 0.00 | 0.10 | 0.10 | 97 | 1008.2 |
| 20260507045106 | 14 | 76 | 0.0 | 3.2 | 0.00 | 0.10 | 0.10 | 97 | 1008.2 |
| 20260507045008 | 14 | 76 | 0.0 | 3.2 | 0.00 | 0.10 | 0.10 | 97 | 1008.2 |
| 20260507044912 | 14 | 46 | 0.0 | 3.2 | 0.00 | 0.10 | 0.10 | 97 | 1008.1 |
| 20260507044755 | 14 | 79 | 0.0 | 3.2 | 0.00 | 0.10 | 0.10 | 97 | 1008.1 |
| 20260507044719 | 14 | 77 | 0.0 | 3.2 | 0.00 | 0.10 | 0.10 | 97 | 1008.1 |
| 20260507044622 | 14 | 15 | 0.0 | 0.0 | 0.00 | 0.10 | 0.10 | 98 | 1008.1 |
| 20260507044524 | 14 | 15 | 0.0 | 0.0 | 0.00 | 0.10 | 0.10 | 98 | 1008.1 |
| 20260507044410 | 14 | 15 | 0.0 | 0.0 | 0.00 | 0.10 | 0.10 | 98 | 1008.0 |
| 20260507044313 | 14 | 10 | 0.0 | 1.6 | 0.00 | 0.10 | 0.10 | 98 | 1008.0 |
| 20260507044157 | 14 | 67 | 0.0 | 1.6 | 0.00 | 0.10 | 0.10 | 98 | 1008.0 |
| 20260507044101 | 14 | 67 | 0.0 | 1.6 | 0.00 | 0.10 | 0.10 | 98 | 1008.1 |
| 20260507044004 | 14 | 67 | 0.0 | 1.6 | 0.00 | 0.10 | 0.10 | 98 | 1008.0 |
| 20260507043928 | 14 | 67 | 0.0 | 1.6 | 0.00 | 0.10 | 0.10 | 97 | 1008.0 |
| 20260507043754 | 14 | 71 | 0.0 | 1.6 | 0.00 | 0.10 | 0.10 | 97 | 1007.9 |
| 20260507043657 | 14 | 71 | 0.0 | 1.6 | 0.00 | 0.10 | 0.10 | 97 | 1008.0 |
| 20260507043601 | 14 | 70 | 0.0 | 1.6 | 0.00 | 0.10 | 0.10 | 97 | 1007.9 |
| 20260507043503 | 14 | 70 | 0.0 | 1.6 | 0.00 | 0.10 | 0.10 | 98 | 1007.9 |
| 20260507043427 | 14 | 70 | 0.0 | 1.6 | 0.00 | 0.10 | 0.10 | 98 | 1008.0 |
| 20260507043310 | 14 | 71 | 0.0 | 0.0 | 0.00 | 0.10 | 0.10 | 98 | 1007.9 |
| 20260507043213 | 14 | 71 | 0.0 | 1.6 | 0.00 | 0.10 | 0.10 | 98 | 1007.9 |
| 20260507043101 | 14 | 70 | 0.0 | 1.6 | 0.00 | 0.10 | 0.10 | 97 | 1007.9 |
| 20260507043023 | 14 | 71 | 0.0 | 1.6 | 0.00 | 0.10 | 0.10 | 98 | 1008.0 |
| 20260507042906 | 14 | 64 | 0.0 | 1.6 | 0.00 | 0.10 | 0.10 | 98 | 1008.0 |
| 20260507042809 | 14 | 63 | 0.0 | 1.6 | 0.00 | 0.10 | 0.10 | 98 | 1008.0 |
| 20260507042713 | 14 | 63 | 0.0 | 1.6 | 0.00 | 0.10 | 0.10 | 98 | 1008.0 |
| 20260507042557 | 14 | 64 | 0.0 | 4.8 | 0.00 | 0.10 | 0.10 | 98 | 1008.0 |
| 20260507042504 | 14 | 64 | 0.0 | 4.8 | 0.00 | 0.10 | 0.10 | 98 | 1008.0 |
| 20260507042407 | 14 | 40 | 0.0 | 4.8 | 0.00 | 0.10 | 0.10 | 98 | 1008.0 |
| 20260507042311 | 14 | 72 | 0.0 | 4.8 | 0.00 | 0.10 | 0.10 | 98 | 1007.9 |
| 20260507042154 | 14 | 72 | 0.0 | 4.8 | 0.00 | 0.10 | 0.10 | 98 | 1007.9 |
| 20260507042057 | 14 | 72 | 0.0 | 6.4 | 0.00 | 0.10 | 0.10 | 98 | 1007.9 |
| 20260507042000 | 14 | 87 | 0.0 | 6.4 | 0.00 | 0.10 | 0.10 | 98 | 1007.9 |
| 20260507041907 | 14 | 87 | 1.6 | 6.4 | 0.00 | 0.10 | 0.10 | 98 | 1007.9 |
| 20260507041811 | 14 | 87 | 1.6 | 6.4 | 0.00 | 0.10 | 0.10 | 98 | 1007.9 |
| 20260507041654 | 14 | 61 | 0.0 | 6.4 | 0.00 | 0.10 | 0.10 | 98 | 1008.0 |
| 20260507041559 | 14 | 61 | 0.0 | 8.0 | 0.00 | 0.10 | 0.10 | 98 | 1008.0 |
| 20260507041522 | 14 | 60 | 0.0 | 9.7 | 0.00 | 0.10 | 0.10 | 98 | 1008.0 |
| 20260507041404 | 14 | 69 | 0.0 | 9.7 | 0.00 | 0.10 | 0.10 | 98 | 1008.0 |
| 20260507041307 | 14 | 69 | 0.0 | 9.7 | 0.00 | 0.10 | 0.10 | 98 | 1008.1 |
| 20260507041155 | 14 | 62 | 0.0 | 9.7 | 0.00 | 0.10 | 0.10 | 98 | 1008.1 |
| 20260507041058 | 14 | 61 | 0.0 | 9.7 | 0.00 | 0.10 | 0.10 | 98 | 1008.1 |
| 20260507041001 | 14 | 63 | 1.6 | 9.7 | 0.00 | 0.10 | 0.10 | 98 | 1008.1 |
| 20260507040905 | 14 | 62 | 1.6 | 9.7 | 0.00 | 0.10 | 0.10 | 98 | 1008.1 |
| 20260507040808 | 14 | 84 | 1.6 | 11.3 | 0.00 | 0.10 | 0.10 | 98 | 1008.1 |
| 20260507040655 | 14 | 72 | 1.6 | 11.3 | 0.00 | 0.10 | 0.10 | 98 | 1008.1 |
| 20260507040559 | 14 | 8 | 0.0 | 11.3 | 0.00 | 0.10 | 0.10 | 98 | 1008.1 |
| 20260507040501 | 14 | 100 | 1.6 | 11.3 | 0.00 | 0.10 | 0.10 | 98 | 1008.2 |
| 20260507040405 | 14 | 100 | 1.6 | 11.3 | 0.00 | 0.10 | 0.10 | 98 | 1008.2 |
| 20260507040329 | 14 | 82 | 1.6 | 11.3 | 0.00 | 0.10 | 0.10 | 98 | 1008.2 |
| 20260507040232 | 14 | 83 | 1.6 | 11.3 | 0.00 | 0.10 | 0.10 | 98 | 1008.2 |
| 20260507040125 | 14 | 91 | 1.6 | 11.3 | 0.00 | 0.10 | 0.10 | 98 | 1008.1 |
| 20260507035954 | 14 | 167 | 1.6 | 11.3 | 0.00 | 0.10 | 0.10 | 98 | 1008.1 |
| 20260507035858 | 14 | 78 | 0.0 | 3.2 | 0.00 | 0.10 | 0.10 | 98 | 1008.1 |
| 20260507035801 | 14 | 78 | 0.0 | 14.5 | 0.00 | 0.10 | 0.10 | 98 | 1008.1 |
| 20260507035705 | 14 | 77 | 0.0 | 14.5 | 0.00 | 0.10 | 0.10 | 98 | 1008.1 |
| 20260507035629 | 14 | 69 | 0.0 | 14.5 | 0.00 | 0.10 | 0.10 | 98 | 1008.0 |
| 20260507035531 | 14 | 89 | 0.0 | 14.5 | 0.00 | 0.10 | 0.10 | 98 | 1008.1 |
| 20260507035414 | 14 | 95 | 0.0 | 14.5 | 0.00 | 0.10 | 0.10 | 98 | 1008.1 |
| 20260507035302 | 14 | 96 | 0.0 | 14.5 | 0.00 | 0.10 | 0.10 | 98 | 1008.1 |
| 20260507035205 | 14 | 63 | 1.6 | 14.5 | 0.00 | 0.10 | 0.10 | 98 | 1008.1 |
| 20260507035129 | 14 | 111 | 3.2 | 14.5 | 0.00 | 0.10 | 0.10 | 98 | 1008.1 |
| 20260507035010 | 14 | 13 | 1.6 | 16.1 | 0.00 | 0.10 | 0.10 | 98 | 1008.1 |
| 20260507034914 | 14 | 76 | 0.0 | 6.4 | 0.00 | 0.10 | 0.10 | 98 | 1008.1 |
| 20260507034757 | 14 | 72 | 0.0 | 6.4 | 0.00 | 0.10 | 0.10 | 98 | 1008.2 |
| 20260507034700 | 14 | 90 | 0.0 | 6.4 | 0.00 | 0.10 | 0.10 | 98 | 1008.1 |
| 20260507034629 | 14 | 62 | 0.0 | 6.4 | 0.00 | 0.10 | 0.10 | 98 | 1008.1 |
| 20260507034511 | 14 | 62 | 0.0 | 6.4 | 0.00 | 0.10 | 0.10 | 98 | 1008.1 |
| 20260507034354 | 14 | 63 | 0.0 | 6.4 | 0.00 | 0.10 | 0.10 | 98 | 1008.1 |
| 20260507034257 | 14 | 79 | 1.6 | 6.4 | 0.00 | 0.10 | 0.10 | 98 | 1008.1 |
| 20260507034201 | 14 | 79 | 1.6 | 6.4 | 0.00 | 0.10 | 0.10 | 98 | 1008.1 |
| 20260507034105 | 14 | 22 | 1.6 | 6.4 | 0.00 | 0.10 | 0.10 | 98 | 1008.1 |
| 20260507034011 | 14 | 53 | 0.0 | 1.6 | 0.00 | 0.10 | 0.10 | 98 | 1008.2 |
| 20260507033854 | 14 | 72 | 0.0 | 4.8 | 0.00 | 0.10 | 0.10 | 98 | 1008.1 |
| 20260507033758 | 14 | 353 | 0.0 | 4.8 | 0.00 | 0.10 | 0.10 | 98 | 1008.2 |
| 20260507033701 | 14 | 41 | 0.0 | 4.8 | 0.00 | 0.10 | 0.10 | 98 | 1008.2 |
| 20260507033605 | 14 | 43 | 0.0 | 4.8 | 0.00 | 0.10 | 0.10 | 98 | 1008.2 |
| 20260507033508 | 14 | 57 | 0.0 | 4.8 | 0.00 | 0.10 | 0.10 | 98 | 1008.2 |
| 20260507033355 | 14 | 139 | 0.0 | 6.4 | 0.00 | 0.10 | 0.10 | 98 | 1008.3 |
| 20260507033318 | 13 | 53 | 0.0 | 6.4 | 0.00 | 0.10 | 0.10 | 98 | 1008.3 |
| 20260507033221 | 13 | 53 | 1.6 | 6.4 | 0.00 | 0.10 | 0.10 | 98 | 1008.4 |
| 20260507033104 | 13 | 50 | 1.6 | 6.4 | 0.00 | 0.10 | 0.10 | 98 | 1008.3 |
| 20260507033027 | 13 | 58 | 0.0 | 6.4 | 0.00 | 0.10 | 0.10 | 98 | 1008.3 |
| 20260507032910 | 13 | 69 | 0.0 | 6.4 | 0.00 | 0.10 | 0.10 | 98 | 1008.3 |
| 20260507032813 | 13 | 57 | 0.0 | 6.4 | 0.00 | 0.10 | 0.10 | 98 | 1008.3 |
| 20260507032701 | 13 | 52 | 1.6 | 6.4 | 0.00 | 0.10 | 0.10 | 98 | 1008.2 |
| 20260507032624 | 13 | 59 | 1.6 | 6.4 | 0.00 | 0.10 | 0.10 | 98 | 1008.2 |
| 20260507032506 | 13 | 86 | 0.0 | 6.4 | 0.00 | 0.10 | 0.10 | 98 | 1008.2 |
| 20260507032410 | 13 | 54 | 0.0 | 4.8 | 0.00 | 0.10 | 0.10 | 98 | 1008.1 |
| 20260507032313 | 13 | 58 | 0.0 | 4.8 | 0.00 | 0.10 | 0.10 | 98 | 1008.2 |
| 20260507032156 | 13 | 62 | 0.0 | 4.8 | 0.00 | 0.10 | 0.10 | 98 | 1008.1 |
| 20260507032121 | 13 | 63 | 0.0 | 4.8 | 0.00 | 0.10 | 0.10 | 98 | 1008.1 |
| 20260507032007 | 13 | 62 | 0.0 | 4.8 | 0.00 | 0.10 | 0.10 | 98 | 1008.0 |
| 20260507031910 | 13 | 63 | 0.0 | 4.8 | 0.00 | 0.10 | 0.10 | 98 | 1008.0 |
| 20260507031814 | 13 | 62 | 1.6 | 4.8 | 0.00 | 0.10 | 0.10 | 98 | 1008.0 |
| 20260507031657 | 13 | 63 | 1.6 | 4.8 | 0.00 | 0.10 | 0.10 | 98 | 1007.9 |
| 20260507031600 | 13 | 56 | 0.0 | 3.2 | 0.00 | 0.10 | 0.10 | 98 | 1008.0 |
| 20260507031503 | 13 | 50 | 0.0 | 3.2 | 0.00 | 0.10 | 0.10 | 98 | 1008.0 |
| 20260507031411 | 13 | 63 | 0.0 | 6.4 | 0.00 | 0.10 | 0.10 | 98 | 1008.0 |
| 20260507031314 | 13 | 62 | 0.0 | 6.4 | 0.00 | 0.10 | 0.10 | 98 | 1008.1 |
| 20260507031157 | 13 | 63 | 0.0 | 6.4 | 0.00 | 0.10 | 0.10 | 98 | 1008.0 |
| 20260507031101 | 13 | 101 | 0.0 | 6.4 | 0.00 | 0.10 | 0.10 | 98 | 1008.0 |
| 20260507031003 | 13 | 57 | 0.0 | 6.4 | 0.00 | 0.10 | 0.10 | 98 | 1008.1 |
| 20260507030908 | 13 | 59 | 0.0 | 6.4 | 0.00 | 0.10 | 0.10 | 98 | 1008.1 |
| 20260507030755 | 13 | 42 | 1.6 | 6.4 | 0.00 | 0.10 | 0.10 | 98 | 1008.0 |
| 20260507030719 | 13 | 65 | 1.6 | 6.4 | 0.00 | 0.10 | 0.10 | 98 | 1008.0 |
| 20260507030602 | 13 | 23 | 1.6 | 6.4 | 0.00 | 0.10 | 0.10 | 98 | 1008.0 |
| 20260507030504 | 13 | 64 | 0.0 | 4.8 | 0.00 | 0.10 | 0.10 | 98 | 1008.0 |
| 20260507030408 | 13 | 64 | 0.0 | 4.8 | 0.00 | 0.10 | 0.10 | 98 | 1007.9 |
| 20260507030311 | 13 | 64 | 0.0 | 4.8 | 0.00 | 0.10 | 0.10 | 98 | 1007.9 |
| 20260507030216 | 13 | 53 | 0.0 | 4.8 | 0.00 | 0.10 | 0.10 | 98 | 1007.9 |
| 20260507030113 | 13 | 63 | 0.0 | 4.8 | 0.00 | 0.10 | 0.10 | 98 | 1007.8 |
| 20260507025959 | 13 | 34 | 0.0 | 8.0 | 0.00 | 0.10 | 0.10 | 98 | 1007.8 |
| 20260507025902 | 13 | 33 | 1.6 | 8.0 | 0.00 | 0.10 | 0.10 | 98 | 1007.9 |
| 20260507025806 | 13 | 62 | 0.0 | 8.0 | 0.00 | 0.10 | 0.10 | 98 | 1007.9 |
| 20260507025709 | 13 | 42 | 0.0 | 12.9 | 0.00 | 0.10 | 0.10 | 98 | 1007.8 |
| 20260507025633 | 13 | 32 | 0.0 | 12.9 | 0.00 | 0.10 | 0.10 | 98 | 1007.8 |
| 20260507025458 | 13 | 32 | 1.6 | 12.9 | 0.00 | 0.10 | 0.10 | 98 | 1007.8 |
| 20260507025402 | 13 | 6 | 0.0 | 12.9 | 0.00 | 0.10 | 0.10 | 98 | 1007.9 |
| 20260507025306 | 13 | 6 | 1.6 | 12.9 | 0.00 | 0.10 | 0.10 | 98 | 1007.9 |
| 20260507025209 | 13 | 74 | 1.6 | 12.9 | 0.00 | 0.10 | 0.10 | 98 | 1007.9 |
| 20260507025113 | 13 | 57 | 1.6 | 12.9 | 0.00 | 0.10 | 0.10 | 98 | 1007.9 |
| 20260507024956 | 13 | 44 | 4.8 | 12.9 | 0.00 | 0.10 | 0.10 | 98 | 1007.9 |
| 20260507024902 | 13 | 25 | 3.2 | 12.9 | 0.00 | 0.10 | 0.10 | 98 | 1007.9 |
| 20260507024806 | 13 | 41 | 1.6 | 9.7 | 0.00 | 0.10 | 0.10 | 98 | 1007.9 |
| 20260507024730 | 13 | 25 | 1.6 | 9.7 | 0.00 | 0.10 | 0.10 | 98 | 1007.8 |
| 20260507024613 | 13 | 46 | 3.2 | 9.7 | 0.00 | 0.10 | 0.10 | 98 | 1007.8 |
| 20260507024455 | 13 | 41 | 1.6 | 9.7 | 0.00 | 0.10 | 0.10 | 98 | 1007.8 |
| 20260507024359 | 13 | 42 | 1.6 | 9.7 | 0.00 | 0.10 | 0.10 | 98 | 1007.8 |
| 20260507024302 | 13 | 50 | 4.8 | 9.7 | 0.00 | 0.10 | 0.10 | 98 | 1007.8 |
| 20260507024210 | 13 | 65 | 3.2 | 9.7 | 0.00 | 0.10 | 0.10 | 98 | 1007.8 |
| 20260507024114 | 13 | 27 | 1.6 | 9.7 | 0.00 | 0.10 | 0.10 | 98 | 1007.7 |
| 20260507023955 | 13 | 52 | 0.0 | 9.7 | 0.00 | 0.10 | 0.10 | 98 | 1007.8 |
| 20260507023859 | 13 | 53 | 1.6 | 9.7 | 0.00 | 0.10 | 0.10 | 98 | 1007.8 |
| 20260507023803 | 13 | 36 | 3.2 | 9.7 | 0.00 | 0.10 | 0.10 | 98 | 1007.7 |
| 20260507023706 | 13 | 37 | 1.6 | 9.7 | 0.00 | 0.10 | 0.10 | 98 | 1007.8 |
| 20260507023615 | 13 | 30 | 0.0 | 4.8 | 0.00 | 0.10 | 0.10 | 98 | 1007.9 |
| 20260507023457 | 13 | 60 | 0.0 | 8.0 | 0.00 | 0.10 | 0.10 | 98 | 1007.9 |
| 20260507023421 | 13 | 59 | 0.0 | 8.0 | 0.00 | 0.10 | 0.10 | 98 | 1007.9 |
| 20260507023303 | 13 | 47 | 0.0 | 8.0 | 0.00 | 0.10 | 0.10 | 98 | 1007.9 |
| 20260507023228 | 13 | 47 | 0.0 | 8.0 | 0.00 | 0.10 | 0.10 | 98 | 1008.0 |
| 20260507023131 | 13 | 47 | 0.0 | 8.0 | 0.00 | 0.10 | 0.10 | 98 | 1008.0 |
| 20260507023012 | 13 | 47 | 0.0 | 8.0 | 0.00 | 0.10 | 0.10 | 98 | 1007.9 |
| 20260507022900 | 13 | 37 | 1.6 | 8.0 | 0.00 | 0.10 | 0.10 | 98 | 1008.0 |
| 20260507022803 | 13 | 37 | 3.2 | 8.0 | 0.00 | 0.10 | 0.10 | 98 | 1008.0 |
| 20260507022707 | 13 | 347 | 1.6 | 8.0 | 0.00 | 0.10 | 0.10 | 98 | 1008.0 |
| 20260507022611 | 13 | 25 | 0.0 | 4.8 | 0.00 | 0.10 | 0.10 | 98 | 1007.9 |
| 20260507022514 | 13 | 29 | 0.0 | 8.0 | 0.00 | 0.10 | 0.10 | 98 | 1008.0 |
| 20260507022357 | 13 | 65 | 1.6 | 8.0 | 0.00 | 0.10 | 0.10 | 98 | 1007.9 |
| 20260507022306 | 13 | 71 | 1.6 | 8.0 | 0.00 | 0.10 | 0.10 | 98 | 1008.0 |
| 20260507022208 | 13 | 23 | 1.6 | 8.0 | 0.00 | 0.10 | 0.10 | 98 | 1008.0 |
| 20260507022112 | 13 | 82 | 1.6 | 8.0 | 0.00 | 0.10 | 0.10 | 98 | 1008.0 |
| 20260507022035 | 13 | 37 | 1.6 | 8.0 | 0.00 | 0.10 | 0.10 | 98 | 1008.0 |
| 20260507021857 | 13 | 39 | 1.6 | 9.7 | 0.00 | 0.10 | 0.10 | 98 | 1008.0 |
| 20260507021821 | 13 | 56 | 1.6 | 9.7 | 0.00 | 0.10 | 0.10 | 98 | 1008.0 |
| 20260507021703 | 13 | 58 | 0.0 | 9.7 | 0.00 | 0.10 | 0.10 | 98 | 1008.0 |
| 20260507021611 | 13 | 63 | 0.0 | 9.7 | 0.00 | 0.10 | 0.10 | 98 | 1008.0 |
| 20260507021513 | 13 | 62 | 0.0 | 9.7 | 0.00 | 0.10 | 0.10 | 98 | 1007.9 |
| 20260507021356 | 13 | 65 | 0.0 | 9.7 | 0.00 | 0.10 | 0.10 | 98 | 1007.9 |
| 20260507021300 | 13 | 44 | 1.6 | 9.7 | 0.00 | 0.10 | 0.10 | 98 | 1007.9 |
| 20260507021203 | 13 | 42 | 1.6 | 9.7 | 0.00 | 0.10 | 0.10 | 98 | 1007.9 |
| 20260507021127 | 13 | 51 | 1.6 | 9.7 | 0.00 | 0.10 | 0.10 | 98 | 1008.0 |
| 20260507021013 | 13 | 60 | 1.6 | 9.7 | 0.00 | 0.10 | 0.10 | 98 | 1008.0 |
| 20260507020856 | 13 | 39 | 1.6 | 8.0 | 0.00 | 0.10 | 0.10 | 98 | 1007.9 |
| 20260507020820 | 13 | 345 | 0.0 | 6.4 | 0.00 | 0.10 | 0.10 | 98 | 1007.9 |
| 20260507020702 | 13 | 59 | 0.0 | 8.0 | 0.00 | 0.10 | 0.10 | 98 | 1008.0 |
| 20260507020607 | 13 | 72 | 0.0 | 8.0 | 0.00 | 0.10 | 0.10 | 98 | 1007.9 |
| 20260507020509 | 13 | 40 | 1.6 | 8.0 | 0.00 | 0.10 | 0.10 | 98 | 1007.8 |
| 20260507020356 | 13 | 3 | 1.6 | 8.0 | 0.00 | 0.10 | 0.10 | 98 | 1007.8 |
| 20260507020300 | 13 | 29 | 0.0 | 8.0 | 0.00 | 0.10 | 0.10 | 98 | 1007.9 |
| 20260507020204 | 13 | 33 | 0.0 | 9.7 | 0.00 | 0.10 | 0.10 | 98 | 1007.9 |
| 20260507020139 | 13 | 33 | 0.0 | 9.7 | 0.00 | 0.10 | 0.10 | 98 | 1007.8 |
| 20260507020003 | 13 | 33 | 1.6 | 9.7 | 0.00 | 0.10 | 0.10 | 98 | 1007.9 |
| 20260507015906 | 13 | 39 | 3.2 | 9.7 | 0.00 | 0.10 | 0.10 | 98 | 1007.9 |
| 20260507015810 | 13 | 15 | 1.6 | 9.7 | 0.00 | 0.10 | 0.10 | 98 | 1008.0 |
| 20260507015657 | 13 | 21 | 0.0 | 9.7 | 0.00 | 0.10 | 0.10 | 98 | 1008.0 |
| 20260507015601 | 13 | 71 | 1.6 | 9.7 | 0.00 | 0.10 | 0.10 | 98 | 1008.0 |
| 20260507015503 | 13 | 72 | 3.2 | 9.7 | 0.00 | 0.10 | 0.10 | 98 | 1007.9 |
| 20260507015407 | 13 | 20 | 4.8 | 9.7 | 0.00 | 0.10 | 0.10 | 98 | 1007.9 |
| 20260507015310 | 13 | 75 | 4.8 | 9.7 | 0.00 | 0.10 | 0.10 | 98 | 1007.9 |
| 20260507015214 | 13 | 60 | 1.6 | 11.3 | 0.00 | 0.10 | 0.10 | 98 | 1007.9 |
| 20260507015102 | 13 | 47 | 1.6 | 9.7 | 0.00 | 0.10 | 0.10 | 98 | 1008.0 |
| 20260507015025 | 13 | 47 | 4.8 | 9.7 | 0.00 | 0.10 | 0.10 | 98 | 1008.0 |
| 20260507014907 | 13 | 333 | 3.2 | 11.3 | 0.00 | 0.10 | 0.10 | 98 | 1007.9 |
| 20260507014811 | 13 | 9 | 3.2 | 9.7 | 0.00 | 0.10 | 0.10 | 98 | 1007.9 |
| 20260507014714 | 13 | 53 | 3.2 | 11.3 | 0.00 | 0.10 | 0.10 | 98 | 1008.0 |
| 20260507014557 | 13 | 25 | 1.6 | 8.0 | 0.00 | 0.10 | 0.10 | 98 | 1008.0 |
| 20260507014504 | 13 | 57 | 0.0 | 8.0 | 0.00 | 0.10 | 0.10 | 98 | 1008.0 |
| 20260507014407 | 13 | 46 | 0.0 | 9.7 | 0.00 | 0.10 | 0.10 | 98 | 1008.1 |
| 20260507014310 | 13 | 46 | 1.6 | 9.7 | 0.00 | 0.10 | 0.10 | 98 | 1008.1 |
| 20260507014213 | 13 | 40 | 1.6 | 16.1 | 0.00 | 0.10 | 0.10 | 98 | 1008.1 |
| 20260507014056 | 13 | 32 | 1.6 | 16.1 | 0.00 | 0.10 | 0.10 | 98 | 1008.1 |
| 20260507013958 | 13 | 53 | 1.6 | 16.1 | 0.00 | 0.10 | 0.10 | 98 | 1008.0 |
| 20260507013906 | 13 | 58 | 1.6 | 16.1 | 0.00 | 0.10 | 0.10 | 98 | 1008.0 |
| 20260507013810 | 13 | 33 | 1.6 | 16.1 | 0.00 | 0.10 | 0.10 | 98 | 1008.0 |
| 20260507013713 | 13 | 39 | 4.8 | 16.1 | 0.00 | 0.10 | 0.10 | 98 | 1008.0 |
| 20260507013557 | 13 | 4 | 3.2 | 16.1 | 0.00 | 0.10 | 0.10 | 98 | 1008.1 |
| 20260507013459 | 13 | 358 | 3.2 | 16.1 | 0.00 | 0.10 | 0.10 | 98 | 1008.1 |
| 20260507013423 | 13 | 22 | 3.2 | 16.1 | 0.00 | 0.10 | 0.10 | 98 | 1008.1 |
| 20260507013305 | 13 | 51 | 0.0 | 4.8 | 0.00 | 0.10 | 0.10 | 98 | 1008.1 |
| 20260507013213 | 13 | 51 | 1.6 | 4.8 | 0.00 | 0.10 | 0.10 | 98 | 1008.1 |
| 20260507013056 | 13 | 358 | 0.0 | 4.8 | 0.00 | 0.10 | 0.10 | 98 | 1008.1 |
| 20260507012958 | 13 | 37 | 1.6 | 4.8 | 0.00 | 0.10 | 0.10 | 98 | 1008.2 |
| 20260507012902 | 13 | 25 | 1.6 | 4.8 | 0.00 | 0.10 | 0.10 | 98 | 1008.2 |
| 20260507012826 | 13 | 18 | 1.6 | 4.8 | 0.00 | 0.10 | 0.10 | 98 | 1008.2 |
| 20260507012708 | 13 | 20 | 0.0 | 6.4 | 0.00 | 0.10 | 0.10 | 98 | 1008.2 |
| 20260507012557 | 13 | 39 | 0.0 | 8.0 | 0.00 | 0.10 | 0.10 | 98 | 1008.3 |
| 20260507012459 | 13 | 38 | 0.0 | 11.3 | 0.00 | 0.10 | 0.10 | 98 | 1008.4 |
| 20260507012403 | 13 | 39 | 0.0 | 11.3 | 0.00 | 0.10 | 0.10 | 98 | 1008.4 |
| 20260507012307 | 13 | 39 | 0.0 | 11.3 | 0.00 | 0.10 | 0.10 | 98 | 1008.4 |
| 20260507012209 | 13 | 39 | 0.0 | 11.3 | 0.00 | 0.10 | 0.10 | 98 | 1008.4 |
| 20260507012113 | 13 | 38 | 1.6 | 12.9 | 0.00 | 0.10 | 0.10 | 98 | 1008.4 |
| 20260507012000 | 13 | 345 | 1.6 | 12.9 | 0.00 | 0.10 | 0.10 | 98 | 1008.4 |
| 20260507011903 | 13 | 63 | 1.6 | 12.9 | 0.00 | 0.10 | 0.10 | 98 | 1008.4 |
| 20260507011807 | 13 | 44 | 4.8 | 12.9 | 0.00 | 0.10 | 0.10 | 98 | 1008.4 |
| 20260507011710 | 13 | 48 | 4.8 | 12.9 | 0.00 | 0.10 | 0.10 | 98 | 1008.4 |
| 20260507011613 | 13 | 50 | 3.2 | 12.9 | 0.00 | 0.10 | 0.10 | 98 | 1008.4 |
| 20260507011456 | 13 | 39 | 3.2 | 12.9 | 0.00 | 0.10 | 0.10 | 98 | 1008.4 |
| 20260507011403 | 13 | 40 | 3.2 | 12.9 | 0.00 | 0.10 | 0.10 | 98 | 1008.4 |
| 20260507011327 | 13 | 23 | 3.2 | 14.5 | 0.00 | 0.10 | 0.10 | 98 | 1008.4 |
| 20260507011210 | 13 | 39 | 1.6 | 11.3 | 0.00 | 0.10 | 0.10 | 98 | 1008.4 |
| 20260507011114 | 13 | 5 | 1.6 | 11.3 | 0.00 | 0.10 | 0.10 | 98 | 1008.4 |
| 20260507010956 | 13 | 359 | 3.2 | 11.3 | 0.00 | 0.10 | 0.10 | 98 | 1008.3 |
| 20260507010900 | 13 | 28 | 3.2 | 11.3 | 0.00 | 0.10 | 0.10 | 98 | 1008.4 |
| 20260507010807 | 13 | 12 | 4.8 | 12.9 | 0.00 | 0.10 | 0.10 | 98 | 1008.3 |
| 20260507010711 | 13 | 57 | 3.2 | 11.3 | 0.00 | 0.10 | 0.10 | 98 | 1008.3 |
| 20260507010615 | 13 | 62 | 1.6 | 11.3 | 0.00 | 0.10 | 0.10 | 98 | 1008.3 |
| 20260507010457 | 13 | 37 | 3.2 | 11.3 | 0.00 | 0.10 | 0.10 | 98 | 1008.3 |
| 20260507010400 | 13 | 22 | 3.2 | 11.3 | 0.00 | 0.10 | 0.10 | 98 | 1008.3 |
| 20260507010304 | 13 | 325 | 3.2 | 11.3 | 0.00 | 0.10 | 0.10 | 98 | 1008.3 |
| 20260507010211 | 13 | 18 | 3.2 | 11.3 | 0.00 | 0.10 | 0.10 | 98 | 1008.4 |
| 20260507010127 | 13 | 12 | 3.2 | 11.3 | 0.00 | 0.10 | 0.10 | 98 | 1008.4 |
| 20260507010011 | 13 | 39 | 1.6 | 9.7 | 0.00 | 0.10 | 0.10 | 98 | 1008.4 |
| 20260507005914 | 13 | 69 | 1.6 | 9.7 | 0.00 | 0.10 | 0.10 | 98 | 1008.4 |
| 20260507005757 | 13 | 49 | 1.6 | 9.7 | 0.00 | 0.10 | 0.10 | 98 | 1008.4 |
| 20260507005701 | 13 | 1 | 3.2 | 9.7 | 0.00 | 0.10 | 0.10 | 98 | 1008.4 |
| 20260507005609 | 13 | 350 | 1.6 | 9.7 | 0.00 | 0.10 | 0.10 | 98 | 1008.5 |
| 20260507005512 | 13 | 40 | 1.6 | 9.7 | 0.00 | 0.10 | 0.10 | 98 | 1008.4 |
| 20260507005415 | 13 | 25 | 1.6 | 9.7 | 0.00 | 0.10 | 0.10 | 98 | 1008.4 |
| 20260507005258 | 13 | 21 | 3.2 | 9.7 | 0.00 | 0.10 | 0.10 | 98 | 1008.4 |
| 20260507005201 | 13 | 21 | 1.6 | 9.7 | 0.00 | 0.10 | 0.10 | 98 | 1008.4 |
| 20260507005105 | 13 | 49 | 1.6 | 14.5 | 0.00 | 0.10 | 0.10 | 98 | 1008.5 |
| 20260507005007 | 13 | 21 | 1.6 | 14.5 | 0.00 | 0.10 | 0.10 | 98 | 1008.4 |
| 20260507004855 | 13 | 69 | 1.6 | 14.5 | 0.00 | 0.10 | 0.10 | 98 | 1008.4 |
| 20260507004819 | 13 | 69 | 3.2 | 14.5 | 0.00 | 0.10 | 0.10 | 98 | 1008.5 |
| 20260507004721 | 13 | 56 | 1.6 | 14.5 | 0.00 | 0.10 | 0.10 | 98 | 1008.5 |
| 20260507004604 | 13 | 59 | 0.0 | 14.5 | 0.00 | 0.10 | 0.10 | 98 | 1008.5 |
| 20260507004506 | 13 | 67 | 1.6 | 14.5 | 0.00 | 0.10 | 0.10 | 98 | 1008.5 |
| 20260507004430 | 13 | 67 | 3.2 | 14.5 | 0.00 | 0.10 | 0.10 | 98 | 1008.4 |
| 20260507004333 | 13 | 11 | 3.2 | 16.1 | 0.00 | 0.10 | 0.10 | 98 | 1008.4 |
| 20260507004159 | 13 | 25 | 0.0 | 11.3 | 0.00 | 0.10 | 0.10 | 98 | 1008.4 |
| 20260507004104 | 13 | 359 | 1.6 | 11.3 | 0.00 | 0.10 | 0.10 | 98 | 1008.3 |
| 20260507004006 | 13 | 358 | 1.6 | 12.9 | 0.00 | 0.10 | 0.10 | 98 | 1008.3 |
| 20260507003910 | 13 | 32 | 3.2 | 12.9 | 0.00 | 0.10 | 0.10 | 98 | 1008.3 |
| 20260507003834 | 13 | 50 | 3.2 | 14.5 | 0.00 | 0.10 | 0.10 | 98 | 1008.4 |
| 20260507003656 | 13 | 25 | 3.2 | 14.5 | 0.00 | 0.10 | 0.10 | 98 | 1008.3 |
| 20260507003559 | 13 | 3 | 4.8 | 19.3 | 0.00 | 0.10 | 0.10 | 98 | 1008.3 |
| 20260507003506 | 13 | 3 | 4.8 | 19.3 | 0.00 | 0.10 | 0.10 | 98 | 1008.3 |
| 20260507003409 | 13 | 23 | 3.2 | 19.3 | 0.00 | 0.10 | 0.10 | 98 | 1008.4 |
| 20260507003313 | 13 | 49 | 3.2 | 19.3 | 0.00 | 0.10 | 0.10 | 98 | 1008.3 |
| 20260507003156 | 13 | 331 | 1.6 | 19.3 | 0.00 | 0.10 | 0.10 | 98 | 1008.4 |
| 20260507003101 | 13 | 53 | 3.2 | 19.3 | 0.00 | 0.10 | 0.10 | 98 | 1008.3 |
| 20260507003004 | 13 | 33 | 4.8 | 19.3 | 0.00 | 0.10 | 0.10 | 98 | 1008.3 |
| 20260507002911 | 13 | 21 | 6.4 | 19.3 | 0.00 | 0.10 | 0.10 | 98 | 1008.2 |
| 20260507002754 | 13 | 359 | 6.4 | 17.7 | 0.00 | 0.10 | 0.10 | 98 | 1008.2 |
| 20260507002657 | 13 | 8 | 3.2 | 14.5 | 0.00 | 0.10 | 0.10 | 98 | 1008.2 |
| 20260507002601 | 13 | 49 | 4.8 | 14.5 | 0.00 | 0.10 | 0.10 | 98 | 1008.1 |
| 20260507002504 | 13 | 23 | 4.8 | 14.5 | 0.00 | 0.10 | 0.10 | 98 | 1008.1 |
| 20260507002427 | 13 | 347 | 3.2 | 14.5 | 0.00 | 0.10 | 0.10 | 98 | 1008.1 |
| 20260507002314 | 13 | 5 | 4.8 | 14.5 | 0.00 | 0.10 | 0.10 | 98 | 1008.1 |
| 20260507002158 | 13 | 12 | 4.8 | 16.1 | 0.00 | 0.10 | 0.10 | 98 | 1008.2 |
| 20260507002102 | 13 | 34 | 4.8 | 12.9 | 0.00 | 0.10 | 0.10 | 98 | 1008.2 |
| 20260507002004 | 13 | 36 | 3.2 | 12.9 | 0.00 | 0.10 | 0.10 | 98 | 1008.2 |
| 20260507001908 | 13 | 37 | 3.2 | 16.1 | 0.00 | 0.10 | 0.10 | 98 | 1008.2 |
| 20260507001812 | 13 | 16 | 3.2 | 16.1 | 0.00 | 0.10 | 0.10 | 98 | 1008.2 |
| 20260507001658 | 13 | 69 | 1.6 | 16.1 | 0.00 | 0.10 | 0.10 | 98 | 1008.3 |
| 20260507001602 | 13 | 25 | 1.6 | 16.1 | 0.00 | 0.10 | 0.10 | 98 | 1008.2 |
| 20260507001504 | 13 | 6 | 0.0 | 16.1 | 0.00 | 0.10 | 0.10 | 98 | 1008.3 |
| 20260507001408 | 13 | 28 | 3.2 | 16.1 | 0.00 | 0.10 | 0.10 | 98 | 1008.2 |
| 20260507001332 | 13 | 56 | 3.2 | 16.1 | 0.00 | 0.10 | 0.10 | 98 | 1008.3 |
| 20260507001154 | 13 | 341 | 3.2 | 16.1 | 0.00 | 0.10 | 0.10 | 98 | 1008.3 |
| 20260507001102 | 13 | 39 | 6.4 | 16.1 | 0.00 | 0.10 | 0.10 | 98 | 1008.3 |
| 20260507001004 | 13 | 30 | 3.2 | 12.9 | 0.00 | 0.10 | 0.10 | 98 | 1008.2 |
| 20260507000908 | 13 | 57 | 0.0 | 12.9 | 0.00 | 0.10 | 0.10 | 98 | 1008.3 |
| 20260507000811 | 13 | 56 | 0.0 | 12.9 | 0.00 | 0.10 | 0.10 | 98 | 1008.2 |
| 20260507000654 | 13 | 58 | 1.6 | 12.9 | 0.00 | 0.10 | 0.10 | 98 | 1008.3 |
| 20260507000558 | 13 | 56 | 4.8 | 12.9 | 0.00 | 0.10 | 0.10 | 98 | 1008.3 |
| 20260507000505 | 13 | 11 | 4.8 | 12.9 | 0.00 | 0.10 | 0.10 | 98 | 1008.2 |
| 20260507000408 | 13 | 25 | 4.8 | 12.9 | 0.00 | 0.10 | 0.10 | 98 | 1008.2 |
| 20260507000314 | 13 | 21 | 3.2 | 17.7 | 0.00 | 0.10 | 0.10 | 98 | 1008.2 |
| 20260507000215 | 13 | 32 | 3.2 | 17.7 | 0.00 | 0.10 | 0.10 | 98 | 1008.2 |
| 20260507000151 | 13 | 47 | 3.2 | 17.7 | 0.00 | 0.10 | 0.10 | 98 | 1008.2 |
| 20260506235954 | 12 | 337 | 1.6 | 17.7 | 0.00 | 0.10 | 0.10 | 98 | 1008.2 |
| 20260506235858 | 13 | 359 | 3.2 | 17.7 | 0.00 | 0.10 | 0.10 | 98 | 1008.2 |
| 20260506235826 | 12 | 44 | 3.2 | 17.7 | 0.00 | 0.10 | 0.10 | 98 | 1008.1 |
| 20260506235728 | 13 | 14 | 3.2 | 17.7 | 0.00 | 0.10 | 0.10 | 98 | 1008.2 |
| 20260506235631 | 12 | 25 | 6.4 | 17.7 | 0.00 | 0.10 | 0.10 | 98 | 1008.2 |
| 20260506235513 | 13 | 1 | 4.8 | 19.3 | 0.00 | 0.10 | 0.10 | 98 | 1008.1 |
| 20260506235356 | 12 | 51 | 3.2 | 12.9 | 0.00 | 0.10 | 0.10 | 98 | 1008.1 |
| 20260506235259 | 13 | 49 | 3.2 | 17.7 | 0.00 | 0.10 | 0.10 | 98 | 1008.1 |
| 20260506235223 | 13 | 72 | 1.6 | 17.7 | 0.00 | 0.10 | 0.10 | 98 | 1008.2 |
| 20260506235126 | 13 | 46 | 3.2 | 17.7 | 0.00 | 0.10 | 0.10 | 98 | 1008.1 |
| 20260506235011 | 12 | 60 | 3.2 | 17.7 | 0.00 | 0.10 | 0.10 | 98 | 1008.1 |
| 20260506234855 | 12 | 63 | 1.6 | 17.7 | 0.00 | 0.10 | 0.10 | 98 | 1008.2 |
| 20260506234758 | 12 | 3 | 4.8 | 17.7 | 0.00 | 0.10 | 0.10 | 98 | 1008.0 |
| 20260506234702 | 12 | 6 | 6.4 | 17.7 | 0.00 | 0.10 | 0.10 | 98 | 1008.1 |
| 20260506234605 | 12 | 4 | 8.0 | 17.7 | 0.03 | 0.10 | 0.10 | 98 | 1008.0 |
| 20260506234508 | 13 | 1 | 6.4 | 19.3 | 0.03 | 0.10 | 0.10 | 98 | 1008.0 |
| 20260506234355 | 13 | 13 | 6.4 | 16.1 | 0.03 | 0.10 | 0.10 | 98 | 1008.0 |
| 20260506234258 | 13 | 42 | 6.4 | 16.1 | 0.03 | 0.10 | 0.10 | 98 | 1008.0 |
| 20260506234202 | 13 | 31 | 3.2 | 16.1 | 0.03 | 0.10 | 0.10 | 98 | 1008.1 |
| 20260506234106 | 13 | 23 | 1.6 | 17.7 | 0.03 | 0.10 | 0.10 | 98 | 1008.0 |
| 20260506234008 | 13 | 46 | 3.2 | 17.7 | 0.03 | 0.10 | 0.10 | 98 | 1008.0 |
| 20260506233931 | 13 | 27 | 6.4 | 17.7 | 0.03 | 0.10 | 0.10 | 98 | 1008.0 |
| 20260506233757 | 13 | 58 | 4.8 | 17.7 | 0.03 | 0.10 | 0.10 | 98 | 1008.0 |
| 20260506233701 | 13 | 316 | 1.6 | 17.7 | 0.03 | 0.10 | 0.10 | 98 | 1008.0 |
| 20260506233605 | 13 | 44 | 0.0 | 17.7 | 0.03 | 0.10 | 0.10 | 98 | 1008.0 |
| 20260506233508 | 13 | 44 | 3.2 | 17.7 | 0.03 | 0.10 | 0.10 | 98 | 1008.0 |
| 20260506233411 | 13 | 12 | 8.0 | 17.7 | 0.03 | 0.10 | 0.10 | 98 | 1008.1 |
| 20260506233314 | 13 | 16 | 6.4 | 19.3 | 0.03 | 0.10 | 0.10 | 98 | 1008.0 |
| 20260506233201 | 13 | 55 | 3.2 | 14.5 | 0.03 | 0.10 | 0.10 | 98 | 1008.0 |
| 20260506233105 | 13 | 11 | 1.6 | 14.5 | 0.03 | 0.10 | 0.10 | 98 | 1008.0 |
| 20260506233007 | 13 | 27 | 1.6 | 14.5 | 0.03 | 0.10 | 0.10 | 98 | 1008.1 |
| 20260506232911 | 13 | 28 | 3.2 | 16.1 | 0.03 | 0.10 | 0.10 | 97 | 1008.0 |
| 20260506232754 | 13 | 47 | 3.2 | 16.1 | 0.03 | 0.10 | 0.10 | 97 | 1008.0 |
| 20260506232657 | 13 | 22 | 3.2 | 16.1 | 0.03 | 0.10 | 0.10 | 97 | 1008.0 |
| 20260506232606 | 13 | 21 | 8.0 | 16.1 | 0.03 | 0.10 | 0.10 | 97 | 1008.0 |
| 20260506232509 | 13 | 9 | 6.4 | 19.3 | 0.03 | 0.10 | 0.10 | 97 | 1008.0 |
| 20260506232412 | 13 | 58 | 1.6 | 19.3 | 0.03 | 0.10 | 0.10 | 97 | 1008.1 |
| 20260506232255 | 13 | 56 | 4.8 | 19.3 | 0.03 | 0.10 | 0.10 | 97 | 1008.1 |
| 20260506232159 | 13 | 69 | 6.4 | 19.3 | 0.03 | 0.10 | 0.10 | 97 | 1008.1 |
| 20260506232123 | 13 | 37 | 3.2 | 19.3 | 0.03 | 0.10 | 0.10 | 97 | 1008.0 |
| 20260506232004 | 13 | 28 | 1.6 | 19.3 | 0.03 | 0.10 | 0.10 | 97 | 1008.1 |
| 20260506231912 | 13 | 32 | 1.6 | 19.3 | 0.03 | 0.10 | 0.10 | 97 | 1008.1 |
| 20260506231755 | 13 | 69 | 6.4 | 19.3 | 0.03 | 0.10 | 0.10 | 97 | 1008.1 |
| 20260506231659 | 13 | 19 | 4.8 | 20.9 | 0.03 | 0.10 | 0.10 | 97 | 1008.1 |
| 20260506231603 | 13 | 345 | 1.6 | 12.9 | 0.03 | 0.10 | 0.10 | 97 | 1008.1 |
| 20260506231506 | 13 | 56 | 1.6 | 12.9 | 0.03 | 0.10 | 0.10 | 97 | 1008.1 |
| 20260506231409 | 13 | 60 | 1.6 | 12.9 | 0.03 | 0.10 | 0.10 | 97 | 1008.1 |
| 20260506231316 | 13 | 51 | 1.6 | 12.9 | 0.03 | 0.10 | 0.10 | 97 | 1008.2 |
| 20260506231159 | 13 | 32 | 1.6 | 12.9 | 0.03 | 0.10 | 0.10 | 97 | 1008.1 |
| 20260506231103 | 13 | 28 | 1.6 | 14.5 | 0.03 | 0.10 | 0.10 | 97 | 1008.1 |
| 20260506231005 | 13 | 332 | 3.2 | 17.7 | 0.03 | 0.10 | 0.10 | 97 | 1008.1 |
| 20260506230909 | 13 | 31 | 4.8 | 17.7 | 0.03 | 0.10 | 0.10 | 97 | 1008.1 |
| 20260506230812 | 13 | 10 | 6.4 | 17.7 | 0.03 | 0.10 | 0.10 | 97 | 1008.1 |
| 20260506230700 | 13 | 32 | 4.8 | 17.7 | 0.03 | 0.10 | 0.10 | 97 | 1008.1 |
| 20260506230624 | 13 | 338 | 1.6 | 17.7 | 0.03 | 0.10 | 0.10 | 97 | 1008.2 |
| 20260506230506 | 13 | 353 | 0.0 | 17.7 | 0.03 | 0.10 | 0.10 | 97 | 1008.2 |
| 20260506230430 | 13 | 51 | 1.6 | 17.7 | 0.03 | 0.10 | 0.10 | 97 | 1008.2 |
| 20260506230332 | 13 | 51 | 4.8 | 17.7 | 0.03 | 0.10 | 0.10 | 97 | 1008.2 |
| 20260506230215 | 13 | 345 | 6.4 | 17.7 | 0.03 | 0.10 | 0.10 | 97 | 1008.3 |
| 20260506230150 | 13 | 341 | 4.8 | 17.7 | 0.03 | 0.10 | 0.10 | 97 | 1008.3 |
| 20260506230013 | 13 | 61 | 3.2 | 14.5 | 0.03 | 0.10 | 0.10 | 97 | 1008.3 |
| 20260506225900 | 13 | 15 | 3.2 | 16.1 | 0.03 | 0.10 | 0.10 | 97 | 1008.2 |
| 20260506225804 | 13 | 69 | 0.0 | 11.3 | 0.03 | 0.10 | 0.10 | 97 | 1008.2 |
| 20260506225707 | 13 | 48 | 1.6 | 11.3 | 0.03 | 0.10 | 0.10 | 97 | 1008.2 |
| 20260506225612 | 13 | 48 | 3.2 | 12.9 | 0.03 | 0.10 | 0.10 | 97 | 1008.2 |
| 20260506225514 | 13 | 316 | 1.6 | 12.9 | 0.03 | 0.10 | 0.10 | 97 | 1008.2 |
| 20260506225357 | 13 | 25 | 1.6 | 14.5 | 0.03 | 0.10 | 0.10 | 97 | 1008.2 |
| 20260506225306 | 13 | 9 | 4.8 | 14.5 | 0.03 | 0.10 | 0.10 | 97 | 1008.3 |
| 20260506225208 | 13 | 42 | 3.2 | 14.5 | 0.05 | 0.10 | 0.10 | 97 | 1008.2 |
| 20260506225112 | 13 | 58 | 1.6 | 14.5 | 0.05 | 0.10 | 0.10 | 97 | 1008.2 |
| 20260506225014 | 13 | 51 | 3.2 | 14.5 | 0.05 | 0.10 | 0.10 | 97 | 1008.2 |
| 20260506224857 | 13 | 44 | 3.2 | 14.5 | 0.05 | 0.10 | 0.10 | 97 | 1008.1 |
| 20260506224800 | 13 | 28 | 3.2 | 17.7 | 0.05 | 0.10 | 0.10 | 97 | 1008.1 |
| 20260506224708 | 13 | 25 | 3.2 | 17.7 | 0.05 | 0.10 | 0.10 | 97 | 1008.1 |
| 20260506224612 | 13 | 29 | 4.8 | 17.7 | 0.03 | 0.08 | 0.08 | 97 | 1008.1 |
| 20260506224454 | 13 | 18 | 8.0 | 17.7 | 0.03 | 0.08 | 0.08 | 97 | 1008.1 |
| 20260506224357 | 13 | 28 | 4.8 | 17.7 | 0.03 | 0.08 | 0.08 | 97 | 1008.0 |
| 20260506224301 | 13 | 355 | 3.2 | 17.7 | 0.03 | 0.08 | 0.08 | 97 | 1008.0 |
| 20260506224225 | 13 | 23 | 3.2 | 17.7 | 0.03 | 0.08 | 0.08 | 97 | 1008.0 |
| 20260506224112 | 13 | 32 | 6.4 | 17.7 | 0.03 | 0.08 | 0.08 | 97 | 1008.0 |
| 20260506223954 | 13 | 336 | 8.0 | 17.7 | 0.03 | 0.08 | 0.08 | 97 | 1008.0 |
| 20260506223858 | 13 | 356 | 6.4 | 17.7 | 0.03 | 0.08 | 0.08 | 97 | 1007.9 |
| 20260506223801 | 13 | 40 | 8.0 | 17.7 | 0.03 | 0.08 | 0.08 | 97 | 1007.9 |
| 20260506223705 | 13 | 23 | 4.8 | 17.7 | 0.03 | 0.08 | 0.08 | 97 | 1007.9 |
| 20260506223608 | 13 | 12 | 4.8 | 20.9 | 0.03 | 0.08 | 0.08 | 97 | 1008.0 |
| 20260506223455 | 13 | 25 | 4.8 | 20.9 | 0.03 | 0.08 | 0.08 | 97 | 1008.0 |
| 20260506223359 | 13 | 75 | 3.2 | 20.9 | 0.03 | 0.08 | 0.08 | 97 | 1008.0 |
| 20260506223302 | 13 | 328 | 6.4 | 20.9 | 0.03 | 0.08 | 0.08 | 97 | 1008.0 |
| 20260506223205 | 13 | 30 | 6.4 | 20.9 | 0.03 | 0.08 | 0.08 | 97 | 1008.1 |
| 20260506223110 | 13 | 27 | 1.6 | 20.9 | 0.03 | 0.08 | 0.08 | 97 | 1008.0 |
| 20260506223033 | 13 | 41 | 3.2 | 20.9 | 0.03 | 0.08 | 0.08 | 97 | 1008.0 |
| 20260506222915 | 13 | 42 | 9.7 | 20.9 | 0.03 | 0.08 | 0.08 | 97 | 1008.0 |
| 20260506222801 | 13 | 25 | 8.0 | 22.5 | 0.03 | 0.08 | 0.08 | 97 | 1008.0 |
| 20260506222704 | 13 | 323 | 4.8 | 19.3 | 0.03 | 0.08 | 0.08 | 97 | 1008.0 |
| 20260506222608 | 13 | 342 | 6.4 | 19.3 | 0.03 | 0.08 | 0.08 | 97 | 1008.0 |
| 20260506222531 | 13 | 356 | 8.0 | 19.3 | 0.03 | 0.08 | 0.08 | 97 | 1008.0 |
| 20260506222413 | 13 | 341 | 4.8 | 19.3 | 0.03 | 0.08 | 0.08 | 97 | 1008.1 |
| 20260506222256 | 13 | 39 | 1.6 | 19.3 | 0.03 | 0.08 | 0.08 | 97 | 1008.1 |
| 20260506222204 | 13 | 35 | 3.2 | 19.3 | 0.03 | 0.08 | 0.08 | 97 | 1008.1 |
| 20260506222108 | 13 | 36 | 1.6 | 19.3 | 0.03 | 0.08 | 0.08 | 97 | 1008.2 |
| 20260506222010 | 13 | 16 | 3.2 | 19.3 | 0.03 | 0.08 | 0.08 | 97 | 1008.2 |
| 20260506221914 | 13 | 29 | 3.2 | 19.3 | 0.03 | 0.08 | 0.08 | 97 | 1008.2 |
| 20260506221757 | 13 | 49 | 1.6 | 14.5 | 0.03 | 0.08 | 0.08 | 97 | 1008.2 |
| 20260506221700 | 13 | 67 | 1.6 | 14.5 | 0.03 | 0.08 | 0.08 | 96 | 1008.1 |
| 20260506221625 | 13 | 56 | 3.2 | 14.5 | 0.03 | 0.08 | 0.08 | 96 | 1008.3 |
| 20260506221532 | 13 | 42 | 4.8 | 14.5 | 0.03 | 0.08 | 0.08 | 96 | 1008.2 |
| 20260506221355 | 13 | 15 | 6.4 | 14.5 | 0.03 | 0.08 | 0.08 | 96 | 1008.3 |
| 20260506221258 | 13 | 345 | 4.8 | 14.5 | 0.03 | 0.08 | 0.08 | 96 | 1008.3 |
| 20260506221202 | 13 | 354 | 3.2 | 14.5 | 0.03 | 0.08 | 0.08 | 96 | 1008.4 |
| 20260506221105 | 13 | 58 | 4.8 | 14.5 | 0.03 | 0.08 | 0.08 | 96 | 1008.3 |
| 20260506221007 | 13 | 37 | 4.8 | 14.5 | 0.03 | 0.08 | 0.08 | 96 | 1008.3 |
| 20260506220854 | 13 | 59 | 1.6 | 12.9 | 0.03 | 0.08 | 0.08 | 96 | 1008.3 |
| 20260506220758 | 13 | 23 | 4.8 | 12.9 | 0.03 | 0.08 | 0.08 | 96 | 1008.3 |
| 20260506220702 | 14 | 15 | 4.8 | 14.5 | 0.03 | 0.08 | 0.08 | 96 | 1008.4 |
| 20260506220606 | 14 | 343 | 6.4 | 14.5 | 0.03 | 0.08 | 0.08 | 96 | 1008.4 |
| 20260506220508 | 14 | 40 | 6.4 | 14.5 | 0.03 | 0.08 | 0.08 | 96 | 1008.5 |
| 20260506220431 | 14 | 348 | 3.2 | 14.5 | 0.03 | 0.08 | 0.08 | 96 | 1008.5 |
| 20260506220258 | 14 | 24 | 1.6 | 14.5 | 0.03 | 0.08 | 0.08 | 96 | 1008.4 |
| 20260506220201 | 14 | 32 | 3.2 | 14.5 | 0.03 | 0.08 | 0.08 | 95 | 1008.4 |
| 20260506220116 | 14 | 76 | 3.2 | 17.7 | 0.03 | 0.08 | 0.08 | 95 | 1008.4 |
| 20260506220001 | 14 | 335 | 4.8 | 20.9 | 0.03 | 0.08 | 0.08 | 95 | 1008.4 |
| 20260506215905 | 14 | 38 | 4.8 | 20.9 | 0.03 | 0.08 | 0.08 | 95 | 1008.4 |
| 20260506215808 | 14 | 8 | 1.6 | 20.9 | 0.03 | 0.08 | 0.08 | 95 | 1008.5 |
| 20260506215656 | 14 | 6 | 1.6 | 20.9 | 0.03 | 0.08 | 0.08 | 95 | 1008.4 |
| 20260506215559 | 14 | 6 | 3.2 | 20.9 | 0.03 | 0.08 | 0.08 | 95 | 1008.5 |
| 20260506215502 | 14 | 353 | 6.4 | 20.9 | 0.03 | 0.08 | 0.08 | 95 | 1008.5 |
| 20260506215425 | 14 | 25 | 8.0 | 25.7 | 0.03 | 0.08 | 0.08 | 95 | 1008.6 |
| 20260506215308 | 14 | 61 | 6.4 | 25.7 | 0.00 | 0.05 | 0.05 | 95 | 1008.5 |
| 20260506215212 | 14 | 8 | 6.4 | 25.7 | 0.00 | 0.05 | 0.05 | 95 | 1008.5 |
| 20260506215055 | 14 | 354 | 11.3 | 25.7 | 0.00 | 0.05 | 0.05 | 95 | 1008.5 |
| 20260506215001 | 15 | 335 | 9.7 | 25.7 | 0.03 | 0.05 | 0.05 | 95 | 1008.4 |
| 20260506214905 | 15 | 331 | 3.2 | 25.7 | 0.03 | 0.05 | 0.05 | 95 | 1008.4 |
| 20260506214808 | 15 | 62 | 1.6 | 25.7 | 0.03 | 0.05 | 0.05 | 94 | 1008.3 |
| 20260506214712 | 15 | 25 | 3.2 | 25.7 | 0.03 | 0.05 | 0.05 | 94 | 1008.4 |
| 20260506214556 | 15 | 68 | 8.0 | 25.7 | 0.03 | 0.05 | 0.05 | 94 | 1008.3 |
| 20260506214458 | 15 | 1 | 6.4 | 27.4 | 0.03 | 0.05 | 0.05 | 94 | 1008.4 |
| 20260506214426 | 15 | 33 | 1.6 | 14.5 | 0.03 | 0.05 | 0.05 | 94 | 1008.4 |
| 20260506214309 | 15 | 16 | 0.0 | 19.3 | 0.03 | 0.05 | 0.05 | 94 | 1008.4 |
| 20260506214213 | 15 | 52 | 1.6 | 19.3 | 0.03 | 0.05 | 0.05 | 94 | 1008.5 |
| 20260506214056 | 15 | 34 | 4.8 | 19.3 | 0.03 | 0.05 | 0.05 | 94 | 1008.5 |
| 20260506213958 | 15 | 54 | 4.8 | 19.3 | 0.03 | 0.05 | 0.05 | 93 | 1008.5 |
| 20260506213922 | 15 | 18 | 4.8 | 19.3 | 0.03 | 0.05 | 0.05 | 93 | 1008.5 |
| 20260506213826 | 15 | 79 | 4.8 | 19.3 | 0.03 | 0.05 | 0.05 | 93 | 1008.6 |
| 20260506213712 | 15 | 28 | 4.8 | 19.3 | 0.03 | 0.05 | 0.05 | 93 | 1008.6 |
| 20260506213616 | 15 | 57 | 6.4 | 19.3 | 0.03 | 0.05 | 0.05 | 93 | 1008.6 |
| 20260506213457 | 15 | 32 | 4.8 | 20.9 | 0.03 | 0.05 | 0.05 | 93 | 1008.5 |
| 20260506213401 | 15 | 5 | 1.6 | 12.9 | 0.03 | 0.05 | 0.05 | 93 | 1008.5 |
| 20260506213304 | 15 | 45 | 1.6 | 12.9 | 0.03 | 0.05 | 0.05 | 93 | 1008.6 |
| 20260506213208 | 15 | 25 | 3.2 | 12.9 | 0.03 | 0.05 | 0.05 | 93 | 1008.6 |
| 20260506213056 | 15 | 62 | 3.2 | 12.9 | 0.03 | 0.05 | 0.05 | 93 | 1008.6 |
| 20260506212958 | 15 | 37 | 3.2 | 22.5 | 0.03 | 0.05 | 0.05 | 93 | 1008.7 |
| 20260506212901 | 15 | 34 | 1.6 | 22.5 | 0.03 | 0.05 | 0.05 | 93 | 1008.7 |
| 20260506212805 | 15 | 29 | 1.6 | 22.5 | 0.03 | 0.05 | 0.05 | 93 | 1008.6 |
| 20260506212708 | 15 | 3 | 4.8 | 22.5 | 0.03 | 0.05 | 0.05 | 93 | 1008.6 |
| 20260506212632 | 15 | 39 | 3.2 | 22.5 | 0.03 | 0.05 | 0.05 | 93 | 1008.6 |
| 20260506212514 | 15 | 21 | 1.6 | 22.5 | 0.03 | 0.05 | 0.05 | 93 | 1008.7 |
| 20260506212422 | 15 | 41 | 3.2 | 22.5 | 0.03 | 0.05 | 0.05 | 93 | 1008.7 |
| 20260506212306 | 15 | 348 | 6.4 | 22.5 | 0.03 | 0.05 | 0.05 | 93 | 1008.6 |
| 20260506212207 | 15 | 5 | 6.4 | 22.5 | 0.03 | 0.05 | 0.05 | 93 | 1008.7 |
| 20260506212131 | 15 | 44 | 3.2 | 19.3 | 0.03 | 0.05 | 0.05 | 93 | 1008.7 |
| 20260506212013 | 15 | 49 | 4.8 | 19.3 | 0.03 | 0.05 | 0.05 | 93 | 1008.6 |
| 20260506211916 | 15 | 20 | 6.4 | 19.3 | 0.03 | 0.05 | 0.05 | 93 | 1008.6 |
| 20260506211759 | 15 | 20 | 3.2 | 20.9 | 0.03 | 0.05 | 0.05 | 93 | 1008.7 |
| 20260506211706 | 15 | 54 | 4.8 | 19.3 | 0.03 | 0.05 | 0.05 | 93 | 1008.7 |
| 20260506211630 | 15 | 47 | 9.7 | 19.3 | 0.03 | 0.05 | 0.05 | 93 | 1008.6 |
| 20260506211512 | 15 | 18 | 4.8 | 19.3 | 0.03 | 0.05 | 0.05 | 94 | 1008.7 |
| 20260506211355 | 15 | 32 | 1.6 | 19.3 | 0.03 | 0.05 | 0.05 | 94 | 1008.7 |
| 20260506211319 | 15 | 31 | 8.0 | 19.3 | 0.03 | 0.05 | 0.05 | 94 | 1008.7 |
| 20260506211201 | 15 | 28 | 9.7 | 19.3 | 0.03 | 0.05 | 0.05 | 94 | 1008.7 |
| 20260506211105 | 15 | 9 | 6.4 | 19.3 | 0.03 | 0.05 | 0.05 | 94 | 1008.7 |
| 20260506211011 | 15 | 326 | 4.8 | 19.3 | 0.03 | 0.05 | 0.05 | 94 | 1008.7 |
| 20260506210854 | 15 | 60 | 1.6 | 19.3 | 0.03 | 0.05 | 0.05 | 94 | 1008.7 |
| 20260506210758 | 15 | 5 | 0.0 | 19.3 | 0.05 | 0.05 | 0.05 | 94 | 1008.7 |
| 20260506210701 | 15 | 58 | 1.6 | 19.3 | 0.05 | 0.05 | 0.05 | 94 | 1008.7 |
| 20260506210627 | 15 | 58 | 1.6 | 19.3 | 0.05 | 0.05 | 0.05 | 94 | 1008.7 |
| 20260506210528 | 15 | 18 | 1.6 | 19.3 | 0.05 | 0.05 | 0.05 | 94 | 1008.7 |
| 20260506210410 | 15 | 360 | 3.2 | 19.3 | 0.05 | 0.05 | 0.05 | 94 | 1008.8 |
| 20260506210318 | 15 | 11 | 1.6 | 17.7 | 0.05 | 0.05 | 0.05 | 94 | 1008.8 |
| 20260506210221 | 15 | 58 | 4.8 | 17.7 | 0.05 | 0.05 | 0.05 | 94 | 1008.7 |
| 20260506210115 | 15 | 51 | 6.4 | 17.7 | 0.05 | 0.05 | 0.05 | 94 | 1008.8 |
| 20260506205959 | 15 | 41 | 3.2 | 12.9 | 0.05 | 0.05 | 0.05 | 94 | 1008.7 |
| 20260506205902 | 15 | 51 | 3.2 | 22.5 | 0.05 | 0.05 | 0.05 | 94 | 1008.7 |
| 20260506205806 | 15 | 341 | 4.8 | 22.5 | 0.05 | 0.05 | 0.05 | 94 | 1008.7 |
| 20260506205709 | 15 | 13 | 4.8 | 22.5 | 0.05 | 0.05 | 0.05 | 94 | 1008.7 |
| 20260506205617 | 15 | 20 | 3.2 | 22.5 | 0.05 | 0.05 | 0.05 | 94 | 1008.7 |
| 20260506205458 | 15 | 19 | 3.2 | 22.5 | 0.05 | 0.05 | 0.05 | 94 | 1008.7 |
| 20260506205422 | 15 | 15 | 1.6 | 22.5 | 0.05 | 0.05 | 0.05 | 94 | 1008.7 |
| 20260506205306 | 15 | 47 | 1.6 | 22.5 | 0.05 | 0.05 | 0.05 | 94 | 1008.8 |
| 20260506205228 | 15 | 28 | 6.4 | 22.5 | 0.05 | 0.05 | 0.05 | 94 | 1008.8 |
| 20260506205132 | 15 | 39 | 4.8 | 22.5 | 0.05 | 0.05 | 0.05 | 94 | 1008.8 |
| 20260506205013 | 15 | 354 | 3.2 | 22.5 | 0.03 | 0.03 | 0.03 | 94 | 1008.9 |
| 20260506204916 | 15 | 18 | 4.8 | 22.5 | 0.03 | 0.03 | 0.03 | 94 | 1008.7 |
| 20260506204803 | 15 | 76 | 4.8 | 22.5 | 0.03 | 0.03 | 0.03 | 94 | 1008.7 |
| 20260506204706 | 15 | 25 | 4.8 | 22.5 | 0.03 | 0.03 | 0.03 | 94 | 1008.9 |
| 20260506204611 | 15 | 41 | 6.4 | 22.5 | 0.03 | 0.03 | 0.03 | 93 | 1008.9 |
| 20260506204513 | 15 | 84 | 6.4 | 22.5 | 0.03 | 0.03 | 0.03 | 93 | 1008.9 |
| 20260506204357 | 15 | 41 | 8.0 | 24.1 | 0.03 | 0.03 | 0.03 | 93 | 1008.9 |
| 20260506204300 | 15 | 37 | 4.8 | 19.3 | 0.03 | 0.03 | 0.03 | 93 | 1008.9 |
| 20260506204208 | 15 | 51 | 1.6 | 19.3 | 0.03 | 0.03 | 0.03 | 93 | 1008.8 |
| 20260506204111 | 15 | 28 | 1.6 | 19.3 | 0.03 | 0.03 | 0.03 | 93 | 1008.8 |
| 20260506204014 | 15 | 25 | 1.6 | 19.3 | 0.03 | 0.03 | 0.03 | 93 | 1008.9 |
| 20260506203857 | 15 | 41 | 3.2 | 19.3 | 0.03 | 0.03 | 0.03 | 93 | 1008.9 |
| 20260506203801 | 15 | 43 | 4.8 | 19.3 | 0.03 | 0.03 | 0.03 | 93 | 1008.9 |
| 20260506203704 | 15 | 22 | 8.0 | 19.3 | 0.03 | 0.03 | 0.03 | 92 | 1009.0 |
| 20260506203612 | 15 | 330 | 8.0 | 20.9 | 0.03 | 0.03 | 0.03 | 92 | 1009.0 |
| 20260506203454 | 15 | 27 | 4.8 | 19.3 | 0.03 | 0.03 | 0.03 | 92 | 1009.0 |
| 20260506203357 | 15 | 8 | 3.2 | 19.3 | 0.03 | 0.03 | 0.03 | 92 | 1009.0 |
| 20260506203301 | 15 | 22 | 3.2 | 19.3 | 0.03 | 0.03 | 0.03 | 92 | 1009.0 |
| 20260506203205 | 15 | 70 | 3.2 | 19.3 | 0.03 | 0.03 | 0.03 | 92 | 1009.0 |
| 20260506203128 | 15 | 360 | 3.2 | 19.3 | 0.03 | 0.03 | 0.03 | 92 | 1009.0 |
| 20260506203010 | 15 | 8 | 3.2 | 19.3 | 0.03 | 0.03 | 0.03 | 92 | 1009.1 |
| 20260506202917 | 15 | 72 | 4.8 | 19.3 | 0.03 | 0.03 | 0.03 | 92 | 1009.1 |
| 20260506202800 | 15 | 49 | 3.2 | 16.1 | 0.03 | 0.03 | 0.03 | 92 | 1009.0 |
| 20260506202704 | 15 | 29 | 4.8 | 17.7 | 0.03 | 0.03 | 0.03 | 92 | 1009.0 |
| 20260506202628 | 15 | 354 | 4.8 | 19.3 | 0.03 | 0.03 | 0.03 | 92 | 1009.1 |
| 20260506202510 | 15 | 74 | 1.6 | 19.3 | 0.03 | 0.03 | 0.03 | 92 | 1009.0 |
| 20260506202412 | 15 | 13 | 3.2 | 19.3 | 0.03 | 0.03 | 0.03 | 92 | 1009.0 |
| 20260506202259 | 15 | 84 | 8.0 | 19.3 | 0.03 | 0.03 | 0.03 | 91 | 1009.0 |
| 20260506202203 | 15 | 14 | 6.4 | 19.3 | 0.03 | 0.03 | 0.03 | 92 | 1009.0 |
| 20260506202108 | 15 | 59 | 3.2 | 19.3 | 0.03 | 0.03 | 0.03 | 91 | 1009.0 |
| 20260506202030 | 15 | 51 | 4.8 | 19.3 | 0.03 | 0.03 | 0.03 | 91 | 1009.0 |
| 20260506201913 | 15 | 32 | 4.8 | 19.3 | 0.03 | 0.03 | 0.03 | 91 | 1008.8 |
| 20260506201756 | 15 | 325 | 6.4 | 19.3 | 0.03 | 0.03 | 0.03 | 91 | 1008.8 |
| 20260506201721 | 15 | 12 | 3.2 | 22.5 | 0.03 | 0.03 | 0.03 | 91 | 1008.9 |
| 20260506201609 | 15 | 75 | 3.2 | 22.5 | 0.03 | 0.03 | 0.03 | 91 | 1009.0 |
| 20260506201511 | 15 | 53 | 6.4 | 22.5 | 0.03 | 0.03 | 0.03 | 91 | 1008.9 |
| 20260506201354 | 15 | 35 | 4.8 | 22.5 | 0.03 | 0.03 | 0.03 | 91 | 1008.9 |
| 20260506201258 | 15 | 59 | 3.2 | 22.5 | 0.03 | 0.03 | 0.03 | 91 | 1009.0 |
| 20260506201201 | 15 | 347 | 3.2 | 22.5 | 0.03 | 0.03 | 0.03 | 91 | 1009.0 |
| 20260506201125 | 15 | 44 | 1.6 | 22.5 | 0.03 | 0.03 | 0.03 | 91 | 1009.1 |
| 20260506201007 | 15 | 22 | 4.8 | 22.5 | 0.03 | 0.03 | 0.03 | 91 | 1009.1 |
| 20260506200854 | 15 | 56 | 4.8 | 24.1 | 0.03 | 0.03 | 0.03 | 91 | 1009.1 |
| 20260506200758 | 15 | 342 | 1.6 | 25.7 | 0.00 | 0.00 | 0.00 | 91 | 1009.2 |
| 20260506200700 | 15 | 47 | 4.8 | 25.7 | 0.00 | 0.00 | 0.00 | 91 | 1009.1 |
| 20260506200605 | 15 | 319 | 4.8 | 25.7 | 0.00 | 0.00 | 0.00 | 91 | 1009.1 |
| 20260506200507 | 15 | 69 | 4.8 | 25.7 | 0.00 | 0.00 | 0.00 | 91 | 1009.0 |
| 20260506200431 | 15 | 333 | 8.0 | 25.7 | 0.00 | 0.00 | 0.00 | 90 | 1009.1 |
| 20260506200257 | 15 | 18 | 9.7 | 25.7 | 0.00 | 0.00 | 0.00 | 90 | 1009.1 |
| 20260506200201 | 15 | 353 | 6.4 | 25.7 | 0.00 | 0.00 | 0.00 | 90 | 1009.0 |
| 20260506200115 | 15 | 53 | 6.4 | 25.7 | 0.00 | 0.00 | 0.00 | 91 | 1009.0 |
| 20260506200000 | 15 | 32 | 6.4 | 25.7 | 0.00 | 0.00 | 0.00 | 90 | 1008.9 |
| 20260506195903 | 15 | 4 | 4.8 | 27.4 | 0.00 | 0.00 | 0.00 | 90 | 1009.1 |
| 20260506195807 | 15 | 34 | 6.4 | 20.9 | 0.00 | 0.00 | 0.00 | 90 | 1009.0 |
| 20260506195654 | 15 | 9 | 4.8 | 20.9 | 0.00 | 0.00 | 0.00 | 90 | 1009.0 |
| 20260506195559 | 15 | 359 | 4.8 | 20.9 | 0.00 | 0.00 | 0.00 | 90 | 1008.9 |
| 20260506195502 | 15 | 338 | 8.0 | 20.9 | 0.00 | 0.00 | 0.00 | 90 | 1008.8 |
| 20260506195405 | 15 | 355 | 8.0 | 20.9 | 0.00 | 0.00 | 0.00 | 89 | 1009.0 |
| 20260506195308 | 15 | 4 | 6.4 | 20.9 | 0.00 | 0.00 | 0.00 | 89 | 1009.0 |
| 20260506195212 | 15 | 51 | 4.8 | 20.9 | 0.00 | 0.00 | 0.00 | 89 | 1009.1 |
| 20260506195059 | 16 | 43 | 6.4 | 20.9 | 0.00 | 0.00 | 0.00 | 89 | 1009.0 |
| 20260506195002 | 16 | 6 | 3.2 | 20.9 | 0.00 | 0.00 | 0.00 | 89 | 1009.0 |
| 20260506194905 | 16 | 33 | 3.2 | 20.9 | 0.00 | 0.00 | 0.00 | 89 | 1009.0 |
| 20260506194809 | 16 | 28 | 6.4 | 20.9 | 0.00 | 0.00 | 0.00 | 89 | 1009.0 |
| 20260506194712 | 16 | 28 | 6.4 | 20.9 | 0.00 | 0.00 | 0.00 | 88 | 1009.1 |
| 20260506194636 | 16 | 33 | 6.4 | 20.9 | 0.00 | 0.00 | 0.00 | 88 | 1009.0 |
| 20260506194501 | 16 | 23 | 3.2 | 19.3 | 0.00 | 0.00 | 0.00 | 88 | 1009.1 |
| 20260506194405 | 16 | 51 | 3.2 | 19.3 | 0.00 | 0.00 | 0.00 | 87 | 1009.1 |
| 20260506194328 | 16 | 53 | 1.6 | 19.3 | 0.00 | 0.00 | 0.00 | 87 | 1009.1 |
| 20260506194211 | 16 | 42 | 6.4 | 19.3 | 0.00 | 0.00 | 0.00 | 87 | 1009.1 |
| 20260506194115 | 16 | 345 | 4.8 | 19.3 | 0.00 | 0.00 | 0.00 | 86 | 1009.1 |
| 20260506193957 | 16 | 47 | 4.8 | 19.3 | 0.00 | 0.00 | 0.00 | 86 | 1009.1 |
| 20260506193900 | 16 | 37 | 8.0 | 27.4 | 0.00 | 0.00 | 0.00 | 86 | 1009.1 |
| 20260506193828 | 16 | 333 | 8.0 | 27.4 | 0.00 | 0.00 | 0.00 | 86 | 1009.3 |
| 20260506193711 | 16 | 5 | 4.8 | 27.4 | 0.00 | 0.00 | 0.00 | 86 | 1009.1 |
| 20260506193615 | 16 | 49 | 4.8 | 27.4 | 0.00 | 0.00 | 0.00 | 85 | 1009.2 |
| 20260506193457 | 16 | 50 | 1.6 | 27.4 | 0.00 | 0.00 | 0.00 | 85 | 1009.2 |
| 20260506193420 | 16 | 37 | 1.6 | 27.4 | 0.00 | 0.00 | 0.00 | 85 | 1009.3 |
| 20260506193303 | 16 | 35 | 1.6 | 27.4 | 0.00 | 0.00 | 0.00 | 84 | 1009.3 |
| 20260506193206 | 16 | 42 | 4.8 | 27.4 | 0.00 | 0.00 | 0.00 | 84 | 1009.2 |
| 20260506193115 | 16 | 28 | 8.0 | 27.4 | 0.00 | 0.00 | 0.00 | 84 | 1009.2 |
| 20260506193016 | 16 | 10 | 1.6 | 19.3 | 0.00 | 0.00 | 0.00 | 84 | 1009.2 |